GEFSMA_500_meanwind_162.txt.gz
Wind_Speed
7 7 8 8 8 7 7 7 6 6 5 5 4 4 3 2 2 2 2 2 3 4 5 6 6 7 7 7 8 9 9 9 8 8 8 8 9 9 9 9 9 10 11
7 7 8 8 8 8 7 7 7 6 6 5 5 4 3 3 3 3 3 3 3 4 4 5 6 6 6 7 8 8 8 8 8 7 7 8 8 9 10 10 10 10 11
8 8 8 8 8 8 7 6 6 6 6 5 5 4 4 3 2 2 3 3 3 4 4 5 6 6 6 6 6 7 7 7 7 7 8 8 8 9 9 10 11 11 11
8 8 8 8 8 8 7 6 6 6 6 5 5 4 4 3 2 2 3 3 4 4 4 5 5 6 6 6 6 6 6 7 7 7 7 7 8 8 9 9 10 11 13
8 8 8 8 8 7 7 6 6 6 6 5 4 4 3 3 3 2 3 3 3 4 4 5 5 6 6 6 6 6 5 5 6 6 7 7 7 8 8 9 10 11 12
7 8 8 8 8 7 7 6 6 5 5 5 5 4 4 3 3 3 3 3 3 3 4 4 5 5 6 5 5 4 4 5 5 6 7 7 7 8 8 9 10 10 11
7 7 8 8 8 7 7 7 7 6 6 5 5 5 4 4 4 3 3 3 3 4 4 4 4 4 4 5 4 4 4 4 5 6 6 6 7 8 9 9 10 10 11
6 7 7 8 7 7 7 7 7 7 6 6 6 5 5 4 4 4 3 3 3 4 4 3 3 3 3 3 5 5 4 5 5 5 5 6 7 7 8 10 10 11 12
4 5 6 7 7 7 7 7 6 6 7 6 6 5 5 5 4 3 3 3 3 3 3 2 2 3 3 4 5 5 6 6 6 5 5 6 6 7 8 9 10 11 13
3 4 5 5 6 6 6 6 6 6 6 6 6 5 5 5 4 3 2 2 2 2 2 2 3 3 4 5 6 6 7 8 7 7 7 7 7 8 8 8 9 10 12
2 3 4 4 4 5 5 5 5 5 5 5 5 5 4 4 4 3 2 1 1 1 2 3 3 4 4 5 6 7 8 8 8 8 9 9 8 8 8 9 10 11 12
3 3 3 3 3 3 4 4 4 4 5 4 4 4 4 4 3 2 2 2 1 1 2 3 4 4 5 6 7 8 8 9 9 9 9 10 10 10 10 11 11 12 13
4 4 3 3 3 3 3 3 4 4 4 4 4 4 4 4 3 3 2 2 2 2 3 3 4 5 6 7 7 8 9 10 10 10 10 11 12 12 12 12 13 14 15
5 5 5 5 4 4 4 4 4 4 4 4 4 4 5 4 3 3 3 3 3 3 4 4 5 6 6 7 8 8 10 11 11 12 12 12 13 14 15 15 15 16 16
7 7 7 6 6 6 5 5 4 4 4 5 5 4 5 5 4 4 4 4 5 5 6 6 6 6 7 8 9 10 11 12 13 13 15 15 15 16 17 18 18 19 19
8 9 8 7 7 7 7 6 5 5 5 5 6 5 6 5 5 6 6 6 6 7 7 8 8 9 10 10 11 13 13 14 14 15 16 17 17 18 19 20 20 21 22
9 9 9 9 8 8 8 8 7 7 7 7 7 7 7 7 6 7 7 8 8 8 9 9 10 11 12 12 13 14 15 16 17 18 18 19 20 20 20 21 21 22 23
10 10 9 9 9 9 9 9 8 9 9 9 9 9 8 8 8 8 9 9 10 11 11 12 13 14 14 15 16 17 18 18 19 20 21 22 23 24 24 25 25 25 26
10 10 10 10 10 10 9 9 10 10 11 11 11 10 10 10 10 10 11 12 13 13 14 15 15 16 17 18 19 20 21 22 22 23 24 25 26 27 28 28 28 28 29
11 11 11 10 10 10 10 11 11 12 13 13 13 12 12 12 13 13 14 14 15 16 17 18 18 19 19 21 21 22 22 24 25 26 27 28 30 31 31 32 32 32 32
12 12 12 12 12 12 12 12 13 14 14 14 15 15 15 15 15 16 16 17 18 19 20 20 21 22 23 23 24 25 25 26 27 29 30 31 33 34 34 35 35 35 35
13 13 14 13 14 14 14 15 15 16 16 16 16 17 17 18 18 19 20 20 21 22 23 23 24 25 26 27 28 28 29 30 31 32 33 34 36 37 37 38 38 39 39
14 14 15 15 15 16 17 17 18 18 18 18 18 19 19 20 21 22 23 24 24 25 26 27 27 28 29 30 30 31 32 33 34 35 36 37 39 40 40 41 41 42 42
16 16 16 17 17 18 19 19 19 19 20 20 20 21 22 22 23 24 25 26 26 27 28 29 30 31 32 33 33 34 35 36 37 39 40 41 42 43 43 44 45 46 46
18 18 18 19 19 20 21 21 21 22 22 22 23 24 24 25 26 26 27 28 29 30 31 32 33 34 35 36 37 38 39 40 41 42 44 44 45 45 46 47 48 49 49
19 19 20 20 21 22 23 23 24 24 25 25 26 27 28 28 29 30 31 32 33 33 34 35 37 37 38 39 40 41 43 44 44 45 46 46 46 47 47 48 49 50 51

GEFSMA_500_meanwind_168.txt.gz
Wind_Speed
5 5 5 5 5 4 4 4 3 2 2 1 1 1 2 3 3 3 4 5 5 6 8 9 10 10 9 9 9 10 10 10 10 10 10 10 11 10 10 10 11 11 12
6 6 5 5 4 4 3 3 3 2 1 1 2 2 3 3 4 4 5 5 6 6 7 8 9 9 9 9 9 9 9 10 10 10 10 10 11 11 11 11 11 10 11
5 6 5 5 4 4 4 3 3 2 1 1 2 2 3 3 3 4 5 5 5 6 7 8 8 9 9 9 9 9 9 10 9 10 10 11 11 12 12 12 11 11 11
5 5 5 5 4 4 3 3 3 2 2 2 2 2 3 3 4 4 5 5 5 6 7 8 8 8 8 7 7 8 8 10 10 10 10 11 11 12 11 11 11 11 12
5 5 5 5 4 4 4 3 3 3 2 2 2 2 3 3 4 4 4 5 5 6 7 7 8 8 8 7 7 7 7 8 9 9 10 11 12 13 12 12 12 12 12
5 5 5 5 5 4 4 4 3 3 2 2 2 2 3 3 3 4 4 4 5 5 6 7 7 7 7 6 6 6 7 7 7 8 9 10 10 11 11 12 13 13 14
4 5 5 5 5 5 4 4 3 3 3 2 2 2 2 3 3 4 4 4 5 5 6 6 6 7 7 6 6 6 6 6 7 7 8 9 8 9 10 11 12 14 14
4 4 5 5 4 4 4 4 4 3 4 3 3 2 2 2 2 3 4 5 5 5 6 5 6 6 6 6 6 6 6 6 6 6 8 8 8 8 9 10 12 13 14
3 4 4 4 4 4 4 4 4 3 3 3 2 2 2 2 2 2 3 4 5 5 5 5 5 5 6 5 5 5 6 7 6 7 7 8 8 9 10 10 10 11 13
3 3 4 4 4 4 3 3 3 3 2 2 2 2 1 1 1 1 2 3 4 4 4 4 5 5 6 6 5 5 5 6 7 8 9 9 9 9 9 10 11 11 11
3 3 4 4 4 4 3 2 2 2 2 1 1 1 1 1 1 0 1 3 3 3 4 4 4 5 5 6 6 6 6 7 8 9 10 10 10 10 10 10 10 11 11
3 3 4 4 4 4 4 3 2 2 2 1 2 1 1 1 1 1 1 2 3 3 4 5 5 5 5 5 6 7 7 8 9 9 10 10 10 11 11 11 12 12 12
3 3 4 4 4 5 4 4 4 3 3 3 3 3 2 2 1 2 2 3 3 4 5 5 6 7 7 7 7 8 9 9 10 10 11 11 11 11 12 12 13 13 13
4 4 4 4 5 5 5 5 5 4 4 4 3 3 3 2 2 2 3 4 4 5 6 6 7 7 8 8 9 9 10 11 11 12 12 12 12 13 13 13 14 15 16
6 5 5 5 6 7 6 6 6 5 5 4 4 4 4 4 4 4 4 5 6 6 6 7 8 8 9 10 10 11 12 13 14 14 15 14 14 15 16 16 16 17 17
7 7 7 7 7 7 8 7 7 6 6 5 5 6 6 5 6 6 6 6 6 7 7 9 9 10 11 12 12 13 13 14 16 17 16 16 17 17 18 18 19 19 20
8 8 8 8 8 8 8 8 7 7 7 7 7 7 7 7 7 7 7 8 8 8 9 10 11 12 13 14 14 15 15 16 17 17 17 18 18 20 20 20 21 21 22
10 9 9 9 9 9 9 9 9 8 8 8 8 8 8 8 8 8 9 9 10 10 11 12 13 14 15 15 16 17 17 17 17 18 19 20 21 21 22 22 23 24 25
11 11 10 10 10 9 9 9 9 9 9 10 10 10 10 10 10 10 11 11 12 12 13 14 14 15 16 16 17 18 18 19 20 21 21 22 23 24 24 25 26 27 28
12 12 12 12 12 11 11 11 10 10 11 11 12 12 12 12 12 13 13 14 14 15 15 16 17 17 18 19 20 20 20 21 22 23 24 25 26 26 27 28 29 30 31
13 13 13 13 13 13 13 12 12 12 12 13 13 14 14 14 14 15 16 16 17 18 18 19 19 20 20 21 22 22 23 24 24 25 26 27 28 29 30 31 32 32 33
14 14 14 14 14 14 13 13 14 14 14 15 15 16 16 16 17 18 18 19 20 20 21 22 22 22 23 24 25 25 26 27 27 28 29 30 31 32 33 34 35 37 38
15 15 15 15 15 15 15 15 15 15 16 16 17 18 18 19 20 20 21 21 22 23 24 24 25 25 26 27 28 28 29 30 31 31 32 33 34 36 36 38 39 41 42
16 16 16 16 16 16 16 16 17 17 18 18 19 20 20 21 22 23 23 24 24 25 26 27 27 28 28 29 30 31 32 33 34 35 36 37 38 39 40 41 43 45 46
17 17 16 17 17 18 18 19 19 20 20 21 22 22 23 24 25 26 26 27 27 28 28 29 30 31 32 33 34 35 35 36 37 38 39 40 41 42 43 45 46 47 48
17 17 17 18 19 20 20 21 22 22 23 24 25 26 27 28 28 29 29 30 30 30 31 32 33 34 35 36 37 38 39 40 40 41 42 43 44 45 45 46 47 48 49

GEFSMA_500_meanwind_174.txt.gz
Wind_Speed
8 8 8 7 7 6 6 5 4 4 4 2 1 1 1 1 2 2 3 3 3 4 4 5 6 6 7 6 6 6 7 8 9 9 9 8 8 8 8 9 9 9 9
8 8 8 7 7 6 6 5 5 4 4 3 2 1 0 1 2 2 3 3 3 3 4 4 5 6 6 6 6 6 6 7 7 8 8 8 8 8 8 8 8 9 9
7 8 8 8 7 7 6 6 5 4 4 3 2 1 0 1 1 2 2 3 3 3 4 4 5 6 6 6 6 6 6 7 7 7 8 8 8 8 8 9 9 9 9
7 7 8 8 7 7 6 6 5 5 4 3 2 2 1 0 1 1 2 2 3 3 3 4 5 5 6 6 5 6 6 7 7 7 8 8 8 9 9 9 10 9 9
6 7 7 8 7 7 7 6 6 5 4 3 2 2 1 1 0 0 1 2 2 3 4 4 5 5 6 6 5 5 6 6 7 7 8 9 9 10 10 11 10 10 9
6 7 7 7 7 7 7 6 5 5 5 4 3 2 2 1 1 1 0 0 1 2 3 3 4 5 6 5 5 5 5 6 7 8 8 9 9 11 11 11 12 11 11
5 6 6 6 7 6 6 6 5 5 5 4 3 3 2 1 1 1 0 0 0 1 2 3 4 4 5 6 5 6 6 6 6 7 7 8 9 10 11 11 12 12 12
5 5 5 6 6 6 5 5 5 5 5 4 4 3 2 1 1 1 1 0 0 1 2 3 3 4 4 5 5 5 5 6 6 6 7 8 8 9 10 11 11 12 12
4 4 4 5 5 5 5 5 4 4 4 4 3 3 2 2 2 2 1 1 1 1 1 2 3 3 4 5 5 5 5 5 6 7 7 8 9 9 9 10 11 11 11
4 4 4 5 5 5 4 4 4 4 4 4 3 3 2 2 1 1 1 1 1 1 1 2 3 3 4 4 5 6 6 6 6 7 8 8 9 9 9 9 10 10 10
4 4 4 4 5 5 4 4 3 3 3 3 3 3 3 2 2 2 2 2 2 2 2 3 4 4 5 5 6 7 7 8 8 8 9 9 9 9 9 9 9 10 11
4 4 4 4 4 4 4 4 4 4 4 4 4 3 3 3 3 2 2 2 3 3 4 4 5 5 6 6 7 8 9 9 9 9 9 9 9 10 9 10 10 11 12
5 4 4 4 4 4 4 3 4 4 4 4 4 4 4 3 3 3 3 3 4 4 5 5 6 6 7 7 8 9 9 9 10 9 9 9 10 10 11 11 10 11 12
6 5 5 4 4 4 4 4 4 5 5 5 5 5 4 4 4 4 4 4 5 5 6 6 7 7 8 9 10 10 10 11 11 11 11 11 12 12 12 12 13 13 14
7 6 5 5 5 5 5 5 6 6 6 6 6 6 5 5 6 6 6 6 6 7 7 7 8 9 9 10 10 11 11 12 12 13 13 13 14 14 14 15 15 15 16
7 7 7 6 7 7 7 7 7 7 7 6 6 6 6 6 7 7 8 8 8 9 9 9 10 10 11 11 11 12 12 13 14 14 15 16 17 17 17 17 17 18 18
8 8 8 8 8 8 8 8 8 8 7 7 6 6 7 8 7 8 8 9 9 10 10 11 11 11 12 13 13 13 14 15 16 16 17 17 18 18 19 19 19 20 20
9 9 10 9 10 10 10 9 9 9 8 8 8 8 8 9 9 9 10 10 10 11 11 12 13 13 14 14 15 15 16 17 17 18 18 19 19 20 20 21 21 22 21
11 12 12 12 12 12 11 11 11 10 10 10 10 10 10 10 11 11 12 12 12 12 13 13 14 15 15 16 17 17 18 19 19 19 20 21 22 22 23 23 23 24 24
13 14 14 14 13 13 13 13 13 12 12 12 12 12 12 13 13 13 13 14 14 15 15 16 16 17 18 18 19 20 20 20 21 21 21 22 23 24 25 25 26 26 27
15 15 15 15 15 15 15 15 15 15 14 14 14 14 14 15 15 15 15 16 17 17 18 19 19 20 20 21 21 22 22 23 23 23 24 24 25 26 27 28 29 29 30
15 16 15 16 16 16 17 17 17 17 16 16 16 16 16 17 17 17 18 19 19 20 21 21 22 22 23 23 24 25 25 25 26 26 27 27 28 28 29 31 32 33 34
16 16 17 17 17 17 18 18 18 18 18 17 17 18 18 19 19 20 20 21 22 23 24 24 24 25 25 26 27 28 28 29 29 30 31 31 31 32 33 34 35 36 36
16 17 17 18 18 18 18 19 19 19 19 19 19 20 21 21 22 22 23 24 25 26 27 27 27 28 28 29 30 31 32 33 34 34 35 35 35 36 37 37 38 39 39
17 18 18 18 18 18 19 19 20 20 21 21 22 23 23 24 24 25 26 27 28 29 29 30 31 32 32 33 34 35 36 36 36 37 38 38 38 39 39 40 41 41 42
19 19 19 19 19 19 20 20 21 22 23 23 24 25 26 27 27 28 29 29 30 31 32 32 33 34 35 36 37 39 39 39 39 39 39 41 41 42 42 42 43 44 44

GEFSMA_500_meanwind_180.txt.gz
Wind_Speed
6 6 6 6 6 5 4 3 2 1 1 1 0 1 2 3 4 4 5 5 5 5 5 5 6 6 6 6 5 5 5 7 8 9 9 10 10 9 9 9 9 10 10
5 6 6 6 5 5 4 4 3 1 1 1 1 1 2 3 3 4 5 5 5 5 5 5 5 5 4 4 4 5 5 6 7 8 9 9 9 9 9 9 10 11 10
5 5 6 6 5 5 4 4 3 2 1 1 1 1 2 2 3 4 4 4 5 5 5 5 4 4 4 4 4 5 6 6 7 7 8 8 8 9 9 10 10 10 10
5 5 5 5 5 5 4 4 3 3 2 2 2 2 2 2 3 3 3 4 5 5 5 5 4 4 5 4 4 4 5 6 7 7 8 8 8 9 9 9 10 10 10
4 5 5 5 5 5 4 4 3 3 2 2 3 3 3 3 2 2 3 4 5 5 5 5 5 5 5 5 4 5 5 6 6 7 8 8 9 9 9 10 10 10 11
4 4 4 5 5 4 4 4 3 3 3 2 2 3 2 2 2 2 3 3 4 5 5 5 5 5 5 6 5 5 6 6 6 7 7 8 9 9 9 10 10 10 11
3 3 4 4 4 4 4 4 4 4 3 2 2 2 2 2 2 2 2 2 3 4 5 4 4 5 5 6 6 6 6 6 7 7 7 8 9 9 10 10 10 10 11
3 3 4 4 4 4 3 3 3 3 3 2 2 2 2 1 1 1 1 2 2 3 3 4 4 4 5 5 6 6 7 7 8 9 9 9 9 10 10 11 12 12 12
3 3 3 3 4 3 3 2 2 2 2 1 1 1 1 0 1 1 1 1 2 3 3 3 3 4 5 5 6 7 7 8 9 10 10 10 10 11 12 13 13 13 14
3 3 3 3 3 3 2 2 1 1 1 1 1 0 0 1 1 1 0 1 2 2 3 3 3 4 4 5 6 7 7 8 8 8 9 9 10 11 12 13 14 14 14
2 3 3 3 3 3 2 2 1 1 1 1 1 1 1 1 1 1 1 2 2 2 3 4 4 4 5 5 6 6 7 8 8 8 9 9 9 11 11 12 13 13 13
3 3 3 3 3 3 2 2 1 1 2 2 2 2 2 3 3 3 3 3 3 3 4 4 5 5 6 6 6 7 8 8 9 8 9 9 9 10 11 11 13 14 14
3 4 4 3 3 3 3 2 2 2 3 3 3 4 4 5 5 4 5 4 4 5 5 6 6 6 7 7 7 7 8 9 9 9 9 10 11 12 12 11 12 13 14
3 3 3 3 4 4 4 4 3 3 3 4 4 5 5 5 5 5 6 6 6 6 6 7 7 7 8 9 9 9 9 10 11 11 11 12 12 13 13 13 13 13 14
4 4 4 4 4 5 5 5 5 4 4 4 5 5 6 6 6 7 7 7 7 7 7 8 8 9 9 10 10 10 10 10 11 12 13 13 14 14 15 15 16 16 17
6 6 6 6 6 6 6 6 6 6 6 6 6 7 7 7 7 8 9 9 9 9 9 9 10 10 10 11 11 11 11 12 13 13 14 15 16 16 17 17 18 19 20
7 7 8 8 8 8 7 7 7 8 9 9 9 9 9 9 9 10 10 10 11 11 11 11 11 11 12 12 13 13 14 14 15 15 16 16 17 18 19 20 20 21 21
8 9 9 9 9 9 9 10 10 10 11 11 11 11 11 11 11 12 12 13 13 13 13 13 14 14 14 15 15 16 16 16 17 18 18 19 19 20 20 21 22 22 23
10 11 11 11 11 11 11 11 12 12 12 13 13 12 12 13 13 14 14 14 15 15 16 16 16 16 17 17 18 18 18 19 19 20 20 20 21 22 22 23 23 24 25
12 12 12 12 13 13 14 14 14 14 14 14 14 14 15 15 15 15 16 16 17 17 18 18 18 19 19 20 20 20 21 21 21 22 22 23 23 24 24 25 26 26 27
13 13 14 14 14 14 15 15 15 15 15 15 15 16 16 16 16 17 17 18 18 19 20 20 21 21 22 22 22 23 23 24 24 25 25 25 26 27 28 28 29 29 30
14 15 14 14 15 15 16 16 16 16 16 16 16 17 17 17 18 19 19 20 20 21 21 22 23 24 24 25 25 26 26 27 27 28 28 29 30 30 32 32 33 33 34
15 15 16 16 16 16 17 17 18 18 18 19 19 19 19 20 20 21 21 22 22 23 23 24 25 25 26 27 27 28 29 29 30 31 32 32 33 34 35 36 36 37 38
16 17 17 18 18 18 19 19 19 19 20 20 21 21 21 22 22 23 23 23 24 24 25 26 27 27 28 29 29 30 31 31 32 33 34 35 36 37 37 38 40 40 41
17 18 18 18 19 19 20 20 20 20 21 21 22 22 22 23 24 24 25 25 26 27 28 28 29 30 31 32 32 33 33 34 34 35 37 38 38 39 40 41 41 42 43
18 18 19 19 20 20 21 21 22 21 21 22 23 23 23 24 25 26 27 27 28 29 30 30 31 32 33 34 34 35 36 37 37 38 39 40 41 42 42 42 43 43 44

GEFSMA_500_meanwind_186.txt.gz
Wind_Speed
6 6 6 6 6 6 5 5 4 3 2 2 2 3 3 4 4 5 5 6 6 6 5 5 6 6 6 6 6 7 7 9 9 8 8 9 10 10 10 10 11 11 11
6 6 6 6 6 5 5 4 4 3 3 2 1 1 2 3 4 5 5 5 5 5 5 5 5 5 5 5 5 5 6 7 8 8 8 9 9 9 10 11 11 11 12
6 6 6 6 5 5 5 4 3 3 2 2 0 1 2 3 4 5 5 5 4 4 5 5 4 4 4 5 5 5 5 7 8 8 8 8 9 9 10 11 11 11 11
5 6 6 5 5 5 4 3 3 2 2 1 0 0 1 2 2 3 4 5 5 4 4 4 5 5 5 5 5 5 6 7 8 8 9 9 9 9 10 10 11 11 11
5 5 5 5 5 4 3 3 2 2 2 1 2 2 2 2 1 2 3 3 4 5 5 4 4 5 5 6 6 6 6 7 7 8 8 9 10 10 10 10 11 11 11
5 5 5 5 5 4 3 3 2 2 1 2 2 2 2 2 1 1 1 1 3 4 4 5 5 5 5 6 7 7 7 7 8 8 9 9 9 10 11 11 11 11 12
3 4 5 5 5 4 4 3 2 2 1 1 1 1 1 1 2 1 1 1 1 2 4 4 4 5 5 7 7 8 8 8 9 9 9 10 10 11 11 11 12 12 13
3 4 4 5 5 4 3 2 2 2 1 1 0 0 1 1 2 2 1 2 2 2 2 4 4 5 5 6 7 7 8 9 9 11 11 11 11 12 12 12 13 13 13
3 4 4 5 5 4 3 2 2 2 1 1 0 1 1 1 2 2 2 2 3 3 3 4 5 6 6 6 7 8 8 9 10 11 12 12 13 13 13 14 14 14 14
3 3 4 4 4 4 3 3 2 2 2 1 1 1 1 2 2 3 3 3 4 4 5 5 5 6 6 6 7 7 8 9 9 10 11 12 13 14 14 15 15 16 15
3 3 4 4 4 4 4 3 2 2 2 2 1 1 1 2 2 3 4 4 4 5 6 7 7 7 7 7 7 8 9 10 10 11 12 12 13 14 14 15 16 17 17
3 4 4 4 4 4 4 3 3 3 2 2 2 2 2 3 3 4 5 5 6 6 6 7 8 8 9 9 9 10 10 10 11 11 12 12 13 14 13 14 15 16 17
4 4 4 4 4 4 4 3 3 3 3 3 3 3 4 4 4 5 6 6 7 7 8 8 8 9 9 10 10 11 11 11 12 12 12 13 14 14 13 14 14 15 17
5 5 5 5 5 5 4 4 4 4 5 5 5 5 5 6 6 7 7 7 8 9 9 10 10 10 10 10 11 12 12 12 13 13 13 13 14 14 14 15 15 16 17
6 6 6 6 5 5 5 5 5 6 6 6 6 7 7 7 8 8 8 9 10 10 11 11 12 12 12 12 13 13 13 13 14 14 14 14 15 15 16 16 16 18 19
7 7 7 7 7 7 7 7 7 7 8 8 8 9 9 9 9 9 10 11 11 12 12 13 14 13 13 13 14 14 15 15 15 15 16 16 16 17 17 18 18 19 19
8 8 8 8 8 8 8 9 9 9 9 9 10 10 11 11 11 12 12 13 14 14 15 14 15 15 15 15 16 16 16 17 17 17 18 18 19 19 19 20 20 21 22
10 10 10 10 10 10 10 10 10 10 11 11 11 12 12 13 14 15 15 15 16 16 17 16 16 16 17 18 18 18 19 19 19 20 20 21 21 21 22 22 22 23 23
11 11 12 12 12 12 12 12 12 12 12 13 13 14 14 15 15 16 17 17 17 18 18 18 18 19 19 19 19 20 21 21 22 22 22 22 22 22 23 23 23 24 25
12 13 13 13 13 14 13 14 14 14 14 15 15 16 16 17 17 17 18 18 18 19 19 19 20 20 21 22 22 22 23 23 24 24 24 25 25 25 25 25 26 27 27
14 14 14 14 15 15 15 16 16 16 17 17 18 18 18 18 18 18 19 19 20 20 21 21 21 22 23 24 24 25 25 25 26 26 27 27 27 27 28 28 29 29 29
15 15 15 16 16 17 17 17 18 18 19 19 19 19 20 20 19 19 20 21 21 22 22 22 23 23 24 25 26 27 27 27 28 28 29 29 30 31 31 32 32 32 33
17 17 17 18 18 18 19 19 20 20 20 20 21 21 21 21 21 21 22 22 23 23 24 24 25 25 26 27 28 29 29 30 30 30 31 31 33 34 35 35 35 36 36
18 19 19 18 19 19 20 20 20 21 21 21 22 22 22 22 22 23 24 24 24 25 25 26 26 27 28 29 30 31 32 32 33 34 34 34 35 36 37 38 39 39 40
18 18 18 19 19 20 20 21 21 21 22 22 22 22 22 23 23 24 25 25 26 27 27 28 28 29 31 32 33 33 34 35 36 36 37 37 38 38 39 40 41 42 43
17 18 18 19 20 21 21 21 22 22 23 23 23 23 24 24 25 26 26 27 28 29 30 30 31 32 33 34 35 36 37 38 38 39 39 40 40 41 41 42 43 44 45

GEFSMA_500_meanwind_192.txt.gz
Wind_Speed
4 4 5 5 4 4 4 4 3 2 2 2 4 4 4 5 5 6 7 7 8 8 8 7 7 8 9 9 10 10 10 10 10 10 10 11 11 10 12 12 13 13 14
4 4 5 4 4 4 3 3 2 2 2 2 2 3 4 5 5 5 6 6 7 7 7 7 7 7 8 8 9 10 10 10 9 9 10 10 11 11 11 12 13 13 14
4 4 5 5 4 3 3 2 2 1 1 1 2 3 3 5 5 4 5 6 6 7 6 6 6 6 7 7 7 8 9 9 9 9 10 10 10 11 12 12 13 13 13
3 4 4 4 4 3 2 1 1 0 0 1 2 2 3 4 5 5 5 5 6 6 6 6 6 6 6 7 8 8 9 9 10 10 10 11 11 11 12 12 13 13 13
3 3 3 4 3 2 2 1 1 0 0 1 1 2 3 4 4 5 5 5 5 6 5 5 6 6 6 7 7 8 9 10 10 11 11 11 12 12 12 13 13 13 14
3 3 3 3 3 2 2 1 1 1 0 1 1 2 3 3 4 4 4 5 5 5 5 5 5 5 5 6 7 8 9 9 10 11 12 12 12 13 13 13 14 14 14
2 3 3 3 3 3 2 1 1 1 1 1 1 2 2 3 3 3 3 4 5 5 6 6 6 6 6 6 7 8 9 9 10 10 11 12 13 14 14 14 14 14 14
2 2 2 3 3 3 2 2 1 1 1 0 0 1 2 3 3 3 4 4 4 5 6 6 7 6 6 6 7 8 9 8 9 10 11 12 13 14 14 15 15 15 15
1 2 2 3 3 2 2 2 1 1 1 1 1 1 2 3 4 4 5 5 5 5 6 7 8 8 8 7 7 8 8 8 9 10 11 13 14 15 15 15 16 17 17
1 2 2 2 3 2 2 1 1 1 1 2 2 2 3 3 4 5 6 6 6 6 7 7 8 9 9 9 9 9 10 11 11 11 12 13 14 15 16 17 17 18 19
2 1 1 2 2 2 2 2 1 1 2 2 2 3 3 3 4 5 6 6 7 7 7 8 8 9 10 10 11 11 11 11 12 12 13 13 14 16 17 18 19 20 20
3 2 2 2 2 3 3 2 2 2 2 2 3 3 3 4 5 5 6 7 7 8 8 9 9 10 11 12 12 12 12 13 13 13 14 15 16 17 18 18 18 19 19
4 3 3 4 4 3 3 3 3 3 3 4 4 4 4 5 5 6 6 7 7 7 8 10 10 11 12 12 13 13 13 14 14 15 16 16 17 17 17 17 18 18 18
5 5 5 5 5 5 4 5 5 5 5 5 6 6 6 6 6 7 7 8 8 9 9 10 10 11 12 13 14 14 15 15 15 15 16 17 17 18 18 18 18 18 19
8 7 6 6 6 6 6 6 6 6 7 7 7 7 7 7 8 9 9 10 10 10 11 11 12 13 13 14 14 15 15 16 16 17 17 17 18 18 19 19 20 20 21
9 8 7 7 7 7 7 8 8 8 9 9 9 9 9 10 10 10 11 11 11 12 13 13 14 15 15 15 16 16 17 17 18 18 18 18 18 19 20 21 21 21 21
9 8 8 8 8 8 8 8 9 9 10 9 9 10 10 10 11 11 12 13 13 14 14 15 16 16 16 17 17 18 18 19 19 19 20 20 21 21 21 22 22 22 23
10 9 9 9 9 9 10 10 10 10 10 10 11 11 11 11 11 12 13 14 14 15 16 17 17 18 18 18 19 19 20 20 20 21 22 22 23 23 24 24 24 25 25
10 9 10 11 11 11 11 11 11 11 11 11 11 11 12 12 13 14 15 15 16 17 17 18 18 19 19 20 20 21 21 22 22 23 24 25 25 26 26 27 27 27 27
11 11 11 12 12 12 12 12 12 13 13 13 13 13 14 14 15 16 17 17 18 18 19 19 20 20 21 22 22 23 23 24 24 25 26 27 27 28 29 29 29 30 30
13 13 13 13 13 13 14 14 14 15 15 15 15 15 16 17 17 18 18 19 19 20 20 21 22 23 23 24 25 25 26 26 27 27 28 29 29 29 30 30 31 31 32
14 14 14 14 14 14 14 15 15 16 16 16 17 17 18 18 19 19 20 20 20 21 22 23 24 25 25 26 27 27 28 28 29 29 30 31 31 31 32 32 33 34 34
14 15 15 15 16 16 16 17 17 17 17 17 18 18 19 20 20 21 21 22 22 23 24 25 26 26 27 28 28 29 30 30 31 32 33 33 33 34 34 35 36 36 36
15 15 15 15 15 16 16 17 18 18 19 19 19 20 21 21 21 21 22 23 23 24 26 27 27 28 28 29 29 30 31 32 33 34 35 35 36 36 36 38 38 38 38
14 15 15 15 16 16 17 18 19 19 19 19 20 21 21 21 22 23 24 25 25 26 28 28 29 30 31 31 31 32 33 33 34 35 36 37 37 38 38 39 40 40 41
15 15 15 16 17 17 18 18 19 19 20 20 21 21 22 23 23 24 25 26 27 28 29 30 30 31 32 32 33 33 34 35 36 37 38 39 39 39 39 39 40 41 42

GEFSMA_500_meanwind_198.txt.gz
Wind_Speed
6 6 6 5 5 5 4 4 4 4 3 3 3 3 4 4 4 4 4 5 5 5 6 6 7 7 8 9 9 9 9 9 9 9 10 10 10 10 10 10 10 11 12
5 5 5 5 5 4 4 4 4 4 3 3 2 3 3 3 3 4 4 4 5 5 6 6 6 6 7 8 9 9 9 9 9 9 9 10 10 10 11 11 11 12 12
5 5 5 5 5 4 4 4 4 3 3 2 2 2 2 3 3 4 4 4 5 5 5 5 5 5 5 5 7 8 8 8 9 9 9 10 11 11 12 12 13 13 13
5 5 4 5 5 5 4 4 4 3 3 2 2 2 2 2 3 3 4 4 5 5 5 5 5 5 5 5 6 7 8 9 9 10 10 10 11 11 12 13 13 13 14
4 4 4 4 4 4 4 3 3 3 3 3 2 1 1 2 2 2 3 3 4 4 4 4 5 5 6 6 7 8 9 9 10 10 10 11 12 12 13 14 14 14 14
4 4 4 4 4 4 3 3 3 3 3 3 2 1 1 2 2 2 2 3 3 3 4 4 5 5 6 6 7 8 8 9 10 10 11 12 12 13 14 14 15 15 14
4 4 3 3 3 3 3 3 3 4 4 3 2 2 2 2 2 2 3 3 3 3 4 4 4 6 7 7 7 8 8 9 10 11 12 12 12 13 14 14 14 15 15
3 3 3 3 3 3 3 3 3 3 3 3 3 2 2 2 2 3 4 4 4 5 5 4 5 6 6 7 7 8 8 9 10 11 12 12 13 14 14 15 15 16 16
2 3 2 2 2 2 3 3 3 3 3 3 3 2 2 2 3 3 4 5 5 6 6 6 7 7 8 8 8 9 10 10 11 12 12 13 13 14 14 15 16 17 17
2 2 2 2 2 2 3 3 3 3 4 4 3 3 3 3 3 4 5 5 5 6 7 7 8 8 9 9 10 11 11 11 12 12 13 13 13 14 15 16 17 18 18
2 2 2 1 2 2 3 3 4 4 4 4 4 4 4 4 4 5 5 5 6 7 7 7 7 9 10 10 11 11 12 12 12 13 14 14 15 15 16 17 18 18 19
2 2 2 2 3 3 3 4 5 5 5 5 6 6 6 6 6 6 6 6 7 7 7 7 8 9 9 11 11 12 12 13 14 14 15 16 17 17 17 18 18 19 19
3 3 3 4 4 4 4 5 5 6 6 6 7 7 7 8 8 8 8 8 8 8 8 9 9 9 10 11 12 13 13 14 14 15 16 17 18 18 19 19 19 20 20
4 4 4 5 5 5 6 6 6 7 7 7 7 8 8 8 8 9 9 9 9 10 10 11 11 12 12 12 13 14 14 15 15 16 17 18 18 19 20 21 21 21 21
6 6 6 6 6 6 7 7 7 7 7 7 7 8 8 8 9 9 9 10 10 11 11 12 13 13 14 14 15 15 16 16 17 17 18 19 19 20 21 21 21 22 22
7 7 7 7 7 7 7 7 7 7 7 8 8 8 9 9 9 10 10 11 11 12 12 13 14 14 15 15 16 16 17 17 18 19 20 20 21 21 22 22 22 23 23
8 8 8 8 7 7 8 8 8 8 9 9 9 9 9 10 10 11 12 12 13 13 14 14 15 15 16 17 18 18 19 19 19 20 21 22 22 23 24 24 24 24 24
8 8 8 8 8 8 9 9 9 9 10 10 10 10 10 11 12 12 13 14 14 14 15 16 16 17 18 19 20 20 21 22 22 23 23 23 24 25 25 25 26 26 26
9 9 8 8 9 10 10 11 11 11 11 11 11 12 12 12 13 14 14 15 15 16 17 18 18 19 20 20 21 22 23 24 24 25 25 26 26 26 27 27 27 27 28
10 10 11 11 11 11 12 12 12 13 13 13 13 13 14 14 15 15 16 16 17 18 19 19 20 20 21 22 23 24 24 25 26 27 27 28 28 28 29 29 29 30 30
11 12 12 13 13 13 13 13 13 13 13 14 14 15 15 16 16 16 17 18 18 19 20 20 21 22 23 24 24 25 26 27 28 29 29 29 30 30 30 30 31 31 32
12 13 13 12 12 13 13 14 14 14 14 15 15 15 16 16 17 17 18 19 19 20 21 22 22 23 24 25 26 27 28 28 29 30 30 31 31 32 32 32 33 33 33
13 13 13 12 12 13 14 14 14 15 15 15 15 16 16 17 17 18 19 20 21 22 23 24 24 25 26 27 28 29 29 30 31 31 32 32 32 32 33 33 33 34 34
13 14 13 13 13 14 14 15 15 15 15 16 17 18 18 18 19 20 20 22 23 24 25 25 26 27 28 29 30 30 31 31 31 32 33 33 33 33 34 35 35 36 37
14 14 14 14 14 15 15 16 16 16 17 17 18 19 19 20 21 22 23 24 24 25 26 27 28 29 29 30 31 32 32 32 32 33 34 35 35 35 36 37 37 38 38
14 14 14 14 15 15 16 16 17 17 18 19 19 20 21 22 23 23 24 24 25 26 27 28 28 29 30 31 32 33 33 33 34 34 35 36 36 36 36 37 38 39 40

GEFSMA_500_meanwind_204.txt.gz
Wind_Speed
5 4 5 4 4 4 4 3 3 4 4 4 5 5 5 5 5 6 7 6 7 7 7 7 7 8 9 9 8 8 9 9 9 9 10 10 11 10 10 10 10 10 11
4 4 4 3 3 3 3 3 3 3 3 3 3 4 5 4 5 5 6 5 5 6 6 7 7 8 8 9 9 9 9 9 8 9 10 10 11 11 11 11 11 11 11
3 3 3 3 3 3 3 2 2 2 2 2 2 3 3 4 5 4 4 5 4 5 6 6 6 7 7 8 8 8 8 9 8 9 10 10 11 11 12 12 12 13 13
3 3 3 2 2 2 2 2 2 1 2 2 2 3 2 2 3 3 3 4 4 5 5 5 6 5 5 6 6 7 8 8 9 9 10 10 11 12 12 12 13 14 14
3 3 2 2 1 1 1 1 1 1 1 1 1 2 1 1 1 2 3 3 4 4 4 5 5 5 5 6 7 8 8 8 9 9 10 10 11 12 13 13 14 15 15
3 2 2 1 1 1 0 1 1 2 2 2 1 2 2 2 2 2 3 3 3 3 4 5 5 5 5 6 6 7 7 8 9 9 9 10 11 12 12 13 14 15 16
2 2 1 1 1 1 0 1 1 2 3 2 1 1 2 2 2 2 3 3 4 4 4 4 5 6 6 6 6 7 7 8 9 9 10 10 11 11 12 13 14 15 16
2 2 2 2 2 2 1 1 1 1 2 2 2 2 2 2 2 3 3 4 4 4 5 5 4 5 5 6 7 7 7 8 10 10 11 11 12 12 12 13 14 14 15
2 2 2 1 2 1 1 1 1 2 2 2 2 2 2 2 3 3 4 4 5 5 6 6 6 6 6 6 7 8 8 9 9 10 11 12 13 13 14 14 14 15 16
3 2 2 2 2 2 2 1 2 2 2 2 2 2 2 2 3 3 4 4 5 5 5 5 6 6 7 7 8 9 9 10 10 11 12 12 13 13 14 15 15 16 17
3 2 2 2 2 2 2 3 3 3 3 3 3 3 4 3 4 5 5 5 6 5 6 6 6 6 7 8 8 9 10 10 11 12 13 13 14 15 15 16 16 17 18
3 2 2 3 2 3 3 4 4 4 4 4 5 5 5 5 5 6 6 6 7 7 7 7 8 8 9 9 9 10 10 11 12 13 14 14 15 16 17 18 18 19 19
4 3 3 3 3 3 4 4 4 5 5 6 6 6 6 6 6 6 6 6 7 7 8 8 9 9 9 10 10 11 12 12 13 14 15 16 17 17 18 19 20 21 21
5 4 3 3 4 4 4 4 4 5 6 6 6 6 6 6 7 7 7 7 7 7 8 9 9 10 10 11 11 12 13 13 15 15 16 16 17 18 19 20 21 22 22
6 5 4 5 5 4 5 5 6 6 6 6 6 7 7 7 8 8 8 8 8 8 9 10 10 11 11 12 13 13 14 14 15 16 17 18 18 19 20 22 22 23 23
7 7 6 6 6 6 7 6 6 6 7 7 7 7 8 8 8 9 9 10 10 10 10 11 11 12 13 14 14 15 16 17 17 18 18 19 20 21 22 22 23 24 24
7 7 7 8 8 8 7 7 7 7 7 7 7 8 8 9 9 10 10 11 11 11 11 12 12 13 14 15 16 17 18 19 19 20 20 21 22 23 23 24 24 24 25
7 8 8 8 8 9 9 9 9 9 8 8 9 9 9 10 10 10 11 11 11 11 12 13 13 14 15 16 17 18 19 20 20 21 22 23 24 24 25 25 25 25 26
8 8 8 8 9 9 10 9 10 10 10 10 10 11 11 11 11 11 11 12 12 12 13 14 15 15 16 17 18 19 20 21 22 23 23 24 25 26 26 26 27 27 27
9 9 10 9 10 10 10 11 11 11 12 12 12 12 11 11 11 12 12 13 13 13 14 15 16 17 18 19 20 21 22 23 24 24 25 26 26 27 27 27 27 28 28
10 10 10 11 10 11 11 11 11 11 12 12 12 11 11 12 12 12 13 13 14 14 15 16 18 19 20 21 22 22 23 24 25 26 27 27 27 27 28 28 29 29 30
11 11 12 12 12 12 12 11 11 11 11 11 11 12 12 12 13 14 14 15 15 16 17 18 19 21 22 22 23 24 24 25 26 27 28 28 28 29 29 30 31 31 32
11 12 13 12 12 12 12 12 12 12 12 12 12 12 13 14 14 15 16 17 18 18 19 21 21 22 23 23 24 25 25 26 27 29 29 30 30 31 31 32 33 33 34
12 13 13 13 13 13 13 13 12 13 13 13 13 13 14 15 16 16 17 18 19 20 21 22 22 23 23 24 25 25 26 27 29 30 31 31 32 33 33 34 35 35 36
13 13 13 13 14 14 14 13 13 13 14 14 14 14 15 16 17 17 18 19 20 21 21 22 23 23 24 25 25 27 28 29 30 31 32 32 33 34 34 35 36 37 38
14 14 14 14 14 14 14 14 14 14 15 15 16 16 17 18 18 19 20 21 21 22 22 23 24 25 26 26 28 28 29 30 31 32 34 34 34 35 35 36 37 39 40

GEFSMA_500_meanwind_210.txt.gz
Wind_Speed
6 6 7 6 6 5 4 5 6 5 5 5 5 5 5 6 6 6 6 7 7 7 8 8 9 10 10 9 9 9 9 10 11 10 11 10 10 11 11 11 11 11 12
6 6 6 6 5 4 4 5 5 5 5 4 5 4 5 5 6 6 6 7 7 7 7 8 9 9 10 10 9 9 9 10 10 11 11 11 11 12 12 12 13 13 13
6 6 7 6 5 4 4 4 4 4 4 4 4 4 4 5 5 6 6 6 6 7 7 8 8 9 10 9 9 8 9 10 11 11 11 12 12 13 13 13 13 14 14
7 7 6 6 4 4 4 4 4 4 4 4 4 3 4 4 5 5 5 5 6 6 6 7 7 7 8 8 8 8 9 10 11 11 11 12 12 13 13 13 14 15 15
6 6 6 6 5 4 4 4 4 4 3 3 3 3 4 4 4 4 4 5 6 6 6 6 6 6 7 7 8 8 9 10 10 10 11 11 11 12 12 12 13 15 15
6 6 6 5 5 4 4 4 5 4 4 4 3 4 4 4 4 4 4 4 5 6 6 6 6 6 6 7 7 8 9 10 10 10 10 11 11 12 12 13 13 14 14
6 6 5 5 4 4 4 4 5 5 4 4 4 4 4 4 4 4 4 5 5 6 6 6 6 6 6 6 7 8 9 10 10 10 11 12 13 13 13 13 13 14 14
5 5 4 4 3 3 4 4 4 4 4 4 4 4 5 5 4 5 5 5 6 6 6 6 6 6 6 6 7 8 9 9 9 10 11 12 12 13 13 14 14 14 14
3 3 3 2 2 3 4 3 3 4 4 4 5 5 4 4 4 5 6 6 6 6 6 6 7 7 7 7 7 8 9 9 10 10 11 11 12 13 14 14 14 15 16
2 2 3 3 3 3 3 3 3 3 4 4 4 4 4 4 5 6 6 6 6 7 7 6 6 7 7 8 8 9 10 10 10 10 11 12 12 13 14 14 15 16 17
3 3 3 3 3 4 4 4 4 4 4 4 4 5 5 5 6 7 7 7 7 7 6 6 6 7 7 8 9 9 10 11 11 12 12 13 13 13 14 15 16 17 18
4 4 3 3 4 4 5 5 5 5 5 5 5 6 6 6 7 7 7 7 7 7 7 7 7 8 8 9 9 10 10 11 12 12 13 14 14 15 16 17 17 18 19
4 4 4 4 4 4 4 5 5 6 6 6 7 7 7 6 7 7 7 8 8 8 8 8 8 9 9 9 10 10 11 12 13 14 14 15 16 16 17 17 18 19 20
4 4 4 4 4 5 5 5 6 7 7 8 8 8 7 7 7 7 8 8 9 9 9 9 9 9 10 10 11 12 13 14 14 15 15 16 17 17 18 19 19 20 21
5 5 5 5 5 5 6 6 7 7 8 8 8 8 8 8 8 8 9 9 9 10 10 10 10 10 10 11 12 13 14 15 15 16 16 17 17 18 19 19 20 21 22
7 6 6 7 6 6 7 7 7 7 7 8 8 8 9 9 9 10 10 10 10 11 11 10 10 11 11 12 13 14 14 15 16 17 18 18 18 19 19 20 21 22 23
7 7 7 7 7 7 7 7 7 7 7 8 9 9 10 10 10 10 11 11 11 11 11 11 12 12 13 14 14 15 16 17 17 18 18 19 19 20 21 22 23 23 24
8 8 8 8 8 8 8 8 8 8 8 9 10 10 10 10 11 11 11 11 11 11 12 12 12 13 14 15 16 16 17 18 18 19 20 20 21 22 23 24 24 25 26
9 8 8 8 8 8 8 9 9 10 10 10 10 11 11 11 11 11 11 11 12 12 13 14 14 15 16 17 18 19 20 20 20 21 22 22 23 24 25 25 26 27 27
9 9 9 9 9 9 9 9 10 10 11 11 10 11 11 11 11 11 12 12 13 14 15 15 16 17 18 19 20 20 21 22 23 23 24 24 25 26 26 27 28 28 28
9 9 9 10 10 9 10 10 11 11 11 11 11 11 11 11 12 12 13 14 14 15 16 17 18 18 19 20 20 21 22 23 24 24 25 26 27 28 28 29 29 29 30
10 10 10 10 10 10 11 12 12 12 12 12 12 12 13 13 13 14 14 15 16 16 17 18 19 20 20 21 22 22 23 24 25 26 26 27 28 28 29 30 31 31 31
11 11 12 12 12 12 12 13 13 13 13 13 13 14 14 14 14 15 16 16 17 18 19 20 20 21 21 22 23 24 25 26 27 27 27 28 29 29 30 31 32 33 34
12 13 13 13 13 13 13 13 14 14 14 14 15 15 15 16 16 17 17 17 18 19 20 21 22 22 23 24 25 26 27 27 28 29 29 30 31 32 33 33 34 34 35
14 14 14 14 15 15 15 15 15 15 15 15 16 16 17 17 18 18 19 19 20 21 22 23 23 24 24 25 26 27 28 29 29 30 31 32 32 33 34 35 36 36 37
15 15 16 16 16 16 16 16 16 16 16 16 17 18 18 18 18 19 20 20 21 22 23 24 25 25 26 26 27 28 29 30 30 31 32 33 34 35 35 36 38 38 39

GEFSMA_500_meanwind_216.txt.gz
Wind_Speed
6 6 5 6 6 6 7 7 6 6 6 6 6 6 6 6 6 7 6 6 7 8 8 8 9 10 10 10 10 11 12 13 13 12 13 13 13 13 13 13 13 14 14
6 6 6 5 6 6 6 6 5 5 5 6 6 6 6 6 7 7 7 8 8 9 9 9 10 9 9 9 9 10 12 12 13 13 13 13 13 14 14 14 14 14 15
7 6 6 5 6 5 5 5 5 5 6 6 6 6 6 7 7 7 7 8 8 8 9 9 10 10 10 10 10 10 10 11 12 13 14 14 14 14 15 15 15 16 16
7 6 6 6 6 6 6 5 5 5 6 6 6 6 7 7 7 7 7 7 8 8 8 8 10 10 10 10 10 10 10 10 11 12 13 14 14 14 15 15 16 16 17
6 6 6 7 6 6 6 6 5 6 5 6 6 6 7 7 7 7 7 7 7 7 7 7 9 10 10 10 10 10 10 10 11 12 12 14 14 15 15 15 16 16 16
6 6 6 6 6 6 6 6 6 6 6 6 6 6 6 7 7 7 6 6 6 6 6 7 6 7 9 9 9 10 10 11 11 12 13 14 14 15 15 15 16 16 16
6 5 5 5 5 5 6 6 6 6 6 6 6 6 6 6 6 6 6 6 5 5 6 6 5 5 6 8 8 9 10 10 11 12 13 13 14 14 15 15 16 17 17
5 5 4 4 5 4 5 5 6 6 6 6 6 6 6 6 5 5 5 6 5 6 6 6 6 6 6 7 8 9 10 11 11 11 11 12 13 13 14 15 16 16 17
4 4 4 4 3 3 4 4 5 5 5 6 5 5 5 5 4 4 5 5 5 6 6 6 6 6 7 8 8 8 9 10 10 10 11 12 13 13 14 15 16 17 17
3 3 3 3 3 4 4 4 4 4 4 5 5 5 5 5 5 5 6 6 7 7 7 7 6 7 8 8 9 8 9 9 10 11 12 12 13 14 14 15 16 17 17
3 3 3 3 3 3 3 4 5 5 4 5 5 5 5 5 6 6 7 7 7 7 6 7 8 8 8 8 8 9 9 11 11 12 12 13 14 14 15 16 17 17 18
3 3 3 3 3 3 4 4 4 5 5 5 5 5 6 6 6 7 7 7 7 6 7 7 8 8 8 9 9 10 11 12 12 13 13 14 15 16 16 17 18 18 19
4 4 4 3 4 4 4 5 5 5 5 5 5 6 6 7 7 7 7 7 7 7 7 7 8 9 9 10 11 11 12 13 14 14 15 16 16 17 17 17 18 18 19
4 4 4 4 4 4 5 5 6 6 6 6 6 7 6 7 7 7 7 7 7 7 7 8 9 10 10 11 12 13 14 15 15 15 16 16 17 17 18 18 19 20 20
4 4 4 4 4 4 5 6 6 6 6 7 7 7 7 7 7 7 8 8 8 8 8 8 9 10 11 12 13 13 14 15 15 16 16 17 18 19 19 20 21 21 22
5 5 5 5 5 5 6 6 6 7 7 7 8 8 8 8 8 8 8 8 8 8 8 9 9 10 11 12 13 13 14 15 15 16 17 17 18 20 20 21 21 22 23
5 5 5 5 6 6 6 7 7 7 6 7 8 8 8 9 9 9 9 8 8 9 9 10 10 11 12 13 14 14 14 15 16 17 18 18 20 20 21 22 22 23 23
5 5 5 5 5 5 6 6 6 6 7 7 8 8 8 8 9 9 9 9 9 9 10 11 12 12 13 14 14 15 16 17 18 19 20 21 21 22 22 23 23 24 25
7 7 6 5 5 5 6 6 6 6 7 8 8 8 9 9 8 9 9 9 10 10 11 12 13 14 14 15 16 17 18 19 19 20 21 22 23 23 23 24 25 26 26
7 7 6 7 6 6 7 7 7 8 8 8 8 8 8 8 9 10 10 10 11 12 13 14 14 15 16 17 18 19 20 20 21 22 23 23 23 24 24 25 26 26 27
8 7 7 7 7 8 8 8 8 8 8 9 9 9 10 10 10 11 12 12 13 14 15 15 16 17 17 18 19 20 21 22 23 23 24 24 25 25 26 26 27 28 29
8 8 8 9 9 9 9 9 9 10 10 10 10 10 10 11 11 12 14 15 15 16 16 17 18 19 20 20 21 22 23 24 24 25 26 26 27 27 27 27 28 29 30
9 10 10 10 10 10 10 10 10 11 12 12 12 12 13 13 14 14 15 16 17 17 18 18 19 20 22 22 23 24 25 25 26 27 27 27 28 28 29 29 30 31 32
10 11 11 11 11 11 11 11 12 13 13 13 14 14 15 15 15 16 17 17 18 19 19 20 21 22 23 23 24 25 26 27 27 27 28 28 29 30 31 31 32 32 33
11 11 11 12 12 12 12 13 13 14 14 15 16 16 16 17 17 18 19 19 20 20 20 21 22 23 24 25 26 27 27 28 28 29 29 29 30 31 32 33 33 34 35
12 12 12 13 13 13 13 14 15 15 16 16 17 18 19 19 19 20 20 21 21 22 23 23 24 24 25 26 27 28 29 29 29 29 30 31 32 33 33 33 34 35 36

GEFSMA_500_meanwind_222.txt.gz
Wind_Speed
8 7 8 8 7 7 8 7 7 8 7 7 8 8 9 9 9 8 7 8 7 8 8 8 8 8 8 9 9 10 10 11 11 11 11 12 13 12 13 13 13 13 13
8 8 8 7 7 7 6 7 7 7 7 7 7 8 8 8 7 8 8 8 8 8 8 8 8 9 9 9 9 9 9 10 11 11 12 13 13 13 12 13 13 14 15
8 8 7 7 6 6 6 6 6 6 6 7 7 7 8 8 8 8 8 8 8 8 9 9 9 9 9 9 9 9 9 9 10 11 11 12 12 14 14 14 14 15 15
8 8 7 7 7 7 7 7 6 6 6 6 6 6 6 7 8 7 8 8 8 9 9 9 10 10 10 10 10 9 10 10 10 11 11 12 12 13 14 14 14 15 15
8 8 7 7 7 7 7 7 6 7 7 7 6 6 6 6 7 7 8 8 8 9 9 9 10 10 10 10 10 10 10 11 11 11 11 12 12 13 14 14 14 14 14
8 7 7 7 6 6 6 6 6 6 7 7 6 6 6 6 6 7 8 8 9 9 9 9 9 9 9 9 9 10 11 11 11 11 11 12 12 13 13 13 14 14 15
6 6 6 6 6 6 6 6 6 6 6 6 5 6 6 7 7 7 8 8 7 7 8 8 8 8 8 8 9 10 10 10 11 11 11 12 13 13 13 13 14 14 15
5 5 5 5 5 5 5 5 5 5 5 5 5 5 5 6 7 7 8 7 7 7 7 7 7 7 8 9 9 9 9 10 11 11 12 12 13 13 13 14 14 15 15
5 4 4 4 4 5 4 4 5 5 5 4 5 5 5 6 6 7 7 6 6 7 7 7 8 8 8 8 9 9 10 11 11 12 12 12 12 13 14 14 15 15 16
4 3 4 3 4 4 4 5 5 4 4 5 5 5 6 6 6 6 6 6 6 7 8 8 9 9 9 9 9 9 10 11 12 12 13 12 12 13 14 15 16 16 17
3 4 4 3 3 3 4 4 4 4 4 5 5 5 6 7 6 6 6 6 6 7 7 8 8 9 9 9 10 10 11 11 11 12 12 13 14 14 15 16 16 17 17
3 4 3 3 3 4 4 4 4 4 5 5 5 6 7 7 7 7 7 7 8 8 8 8 9 9 9 10 10 10 11 11 12 13 13 13 14 15 16 17 17 17 18
3 3 3 4 4 4 4 4 4 5 5 6 6 6 7 7 8 8 8 8 9 8 8 8 9 10 10 10 11 12 12 13 13 14 14 15 16 17 17 18 18 19 19
4 4 4 5 5 5 5 5 5 5 5 5 6 6 7 8 8 8 8 9 9 9 9 9 9 10 10 11 12 12 13 13 14 15 16 16 17 18 18 19 19 19 19
5 5 5 4 5 5 5 5 5 5 5 6 6 7 7 7 8 9 9 9 9 10 10 10 10 10 10 11 12 13 14 14 15 16 16 17 18 19 19 19 19 19 20
5 5 5 5 5 5 6 6 6 6 7 7 7 7 8 8 8 9 10 10 10 10 10 10 11 11 12 12 13 14 14 15 15 16 17 18 18 19 19 19 20 20 21
5 5 6 6 6 6 7 7 7 6 7 7 7 8 8 8 9 9 9 9 9 9 10 11 12 12 13 13 13 14 14 15 16 17 18 19 19 20 20 20 21 21 22
6 6 7 6 6 6 7 7 7 7 7 7 8 8 8 9 9 9 9 10 10 11 11 12 13 13 13 14 14 15 15 16 18 18 19 20 21 21 22 22 23 23 23
7 7 7 7 7 6 6 6 6 7 7 7 8 8 9 9 10 10 10 11 11 12 13 14 14 14 14 15 16 16 17 18 19 20 21 21 22 23 24 24 24 24 24
8 7 7 8 8 7 7 8 8 8 8 8 9 9 10 10 11 11 11 11 12 13 14 15 15 16 16 17 18 19 19 20 21 22 23 23 24 24 25 25 25 25 26
8 7 8 8 8 8 8 9 10 9 9 10 11 11 12 12 12 12 12 12 13 14 15 16 17 18 18 19 21 21 21 22 23 23 24 25 25 25 25 26 26 27 27
8 8 8 8 9 9 9 10 10 11 11 12 12 13 13 13 13 13 13 14 15 16 16 17 18 19 20 21 22 23 23 23 24 25 25 25 26 26 26 27 27 28 29
9 9 9 10 10 10 10 11 11 12 13 13 14 14 14 14 14 14 15 16 17 18 18 19 20 21 21 22 23 24 24 25 25 26 26 26 27 28 28 29 29 30 31
10 11 11 11 11 11 12 12 13 14 14 14 14 15 15 16 16 17 17 18 18 19 20 20 21 22 22 23 24 25 25 26 26 27 28 28 28 29 29 30 31 32 33
12 12 12 12 13 13 13 13 14 14 14 15 16 16 17 17 18 19 20 20 20 21 22 23 23 24 25 26 26 26 27 27 28 28 29 29 29 30 31 32 32 33 34
13 14 14 15 14 14 15 15 15 15 16 16 17 17 18 18 19 20 21 21 22 23 24 25 25 26 27 27 28 28 28 29 29 29 29 30 30 32 32 33 33 33 34

GEFSMA_500_meanwind_228.txt.gz
Wind_Speed
9 9 9 8 9 9 9 10 10 10 10 10 10 10 10 10 10 10 10 10 10 10 9 9 9 9 9 9 10 10 10 11 11 12 12 12 12 12 12 13 14 15 15
9 8 8 8 8 9 9 9 10 9 9 9 10 9 9 9 10 10 10 9 9 9 8 8 8 9 9 9 9 10 10 10 11 11 12 12 12 12 13 14 14 14 14
7 8 8 8 8 8 9 9 9 10 9 10 9 9 9 9 9 9 9 9 9 9 9 9 9 9 9 9 9 9 10 10 10 11 12 12 12 12 13 14 13 14 14
7 7 8 8 8 8 8 8 9 10 9 9 9 9 8 9 9 9 9 9 10 10 10 10 10 10 10 10 10 10 10 11 11 11 11 11 11 12 12 13 14 14 14
7 7 7 7 7 8 8 8 8 8 8 8 9 8 8 9 9 9 9 10 10 10 10 11 11 11 11 10 10 10 10 10 10 11 11 11 11 11 12 12 13 13 14
6 7 7 7 7 7 7 7 7 7 7 8 8 8 9 9 9 9 8 9 10 10 10 10 10 10 10 10 10 10 11 11 11 11 11 11 11 12 12 13 13 13 14
5 5 6 6 6 6 6 6 6 6 7 7 8 8 9 9 9 8 8 9 10 10 10 10 9 9 9 9 10 10 11 11 12 12 12 12 12 12 13 13 13 14 14
4 3 4 4 4 5 5 5 6 6 7 7 7 8 8 8 8 8 8 8 9 9 10 10 10 10 10 10 11 11 11 11 11 12 13 13 13 13 13 13 14 15 15
3 3 3 3 3 4 5 5 5 6 6 6 7 7 7 7 7 7 7 7 8 8 8 9 9 10 10 10 11 11 11 11 12 13 13 14 14 13 14 14 15 15 16
2 3 2 2 3 4 4 4 4 4 4 5 5 5 6 5 6 6 6 6 7 7 7 8 8 9 9 10 11 11 11 12 12 12 12 13 13 14 14 15 16 16 16
2 2 3 2 2 3 3 4 4 4 4 4 5 5 5 6 6 5 6 6 7 7 7 8 8 9 9 10 11 11 12 12 12 13 13 13 14 15 15 16 17 17 17
2 3 3 3 3 3 3 4 4 4 4 4 5 5 5 5 5 6 7 7 8 8 8 8 9 9 9 10 11 11 12 12 12 13 13 14 15 15 16 16 17 17 18
3 3 4 4 3 3 3 4 4 5 5 5 5 6 6 6 5 6 7 8 8 9 9 9 9 9 10 10 11 11 12 12 12 13 14 15 15 16 16 16 17 17 18
3 3 4 4 4 4 4 4 5 5 4 4 5 5 6 6 6 6 7 8 8 9 9 9 9 10 10 10 11 12 12 13 13 14 15 15 16 16 16 17 18 18 18
5 4 4 4 4 4 4 4 4 4 4 5 5 6 6 6 7 7 8 9 9 9 9 9 10 11 11 11 12 12 13 14 14 14 15 15 16 17 18 18 19 19 19
5 5 5 5 5 5 5 4 5 5 6 7 7 7 6 7 7 8 9 9 9 9 10 10 10 11 11 11 12 13 13 14 14 15 15 16 17 17 19 19 20 20 21
5 5 5 5 5 6 6 6 6 6 7 7 7 7 7 7 8 8 9 9 10 10 10 11 11 11 12 13 13 14 15 15 16 16 17 18 19 19 20 21 21 22 22
6 6 6 6 7 7 7 8 8 7 7 8 8 8 8 8 9 9 9 10 10 11 11 12 12 13 14 15 15 16 16 16 17 18 19 20 20 21 22 22 23 23 24
7 6 6 7 8 8 8 7 7 8 8 8 8 8 8 9 9 10 10 11 11 11 12 13 14 15 16 16 16 17 17 18 19 20 20 21 22 22 23 24 24 25 25
7 7 7 8 8 7 7 7 7 8 9 8 9 9 10 10 10 11 11 11 12 12 13 14 15 16 17 17 18 19 19 20 21 21 22 23 23 24 24 25 25 26 26
8 8 8 8 8 7 7 8 8 8 8 9 9 10 11 11 11 11 12 13 13 14 15 15 16 17 18 19 20 21 21 22 22 23 24 24 25 25 25 26 27 28 28
9 9 9 8 8 8 8 8 9 9 9 10 10 11 12 12 12 13 14 14 14 15 16 17 18 19 20 20 21 22 23 23 24 24 25 26 26 27 27 27 28 29 29
10 9 9 9 9 9 9 9 10 10 11 12 12 12 13 13 14 14 15 16 16 17 18 19 19 20 21 21 22 23 24 25 26 27 28 28 28 28 28 29 29 29 30
11 10 10 10 10 10 11 11 11 12 13 13 14 14 14 14 15 16 16 17 18 19 19 19 20 21 22 22 24 25 25 26 27 28 28 29 29 29 29 29 29 30 31
13 13 13 13 13 13 14 14 14 14 14 15 15 15 15 15 16 16 17 18 19 20 21 21 22 23 23 24 25 26 26 27 28 29 29 30 29 30 30 30 31 31 32
14 14 14 14 15 15 15 16 16 16 16 16 16 16 16 17 17 18 19 20 21 22 23 23 24 24 24 25 26 27 27 28 29 29 29 30 31 31 31 31 31 32 32

GEFSMA_500_meanwind_234.txt.gz
Wind_Speed
8 8 8 8 9 10 10 10 10 10 10 10 11 11 11 11 11 10 10 10 10 10 11 11 11 11 11 11 11 11 11 11 12 12 12 12 13 13 13 13 13 14 14
8 8 8 8 9 10 10 10 10 10 11 11 11 10 11 11 12 11 10 10 10 10 10 10 11 11 11 11 11 11 11 11 12 13 13 12 13 12 13 13 13 14 15
8 8 8 8 8 9 9 9 9 10 10 10 10 10 11 11 11 11 10 10 10 10 10 10 10 10 11 11 10 11 11 11 11 12 12 13 13 13 14 14 14 15 15
8 8 7 8 8 8 8 9 9 9 9 10 10 9 10 10 10 10 10 10 10 10 11 11 11 10 10 11 11 11 11 11 11 11 11 12 12 13 13 14 14 14 15
6 7 7 7 7 7 7 7 8 8 8 9 8 8 9 9 10 10 10 11 11 11 11 11 11 11 11 10 10 10 10 10 11 11 11 12 12 13 14 14 14 15 15
5 5 5 5 6 6 6 7 7 8 8 8 7 8 8 8 9 10 10 11 11 10 11 11 11 11 11 10 10 10 10 10 11 11 12 12 13 14 15 15 15 16 15
4 4 4 4 5 6 6 6 6 7 8 8 8 8 9 9 9 9 10 10 11 11 11 11 11 11 11 11 11 11 11 11 11 12 12 13 13 14 14 15 16 16 16
3 3 4 4 5 5 6 6 6 7 8 8 8 8 8 9 9 9 10 10 10 11 11 10 10 10 10 11 11 12 12 12 12 12 13 13 14 14 14 15 16 16 17
3 3 4 4 4 5 5 5 6 6 6 6 7 7 8 8 8 8 10 10 10 10 10 10 10 10 10 11 12 12 12 13 13 13 14 14 14 15 16 16 17 18 18
4 4 4 5 5 5 4 4 5 5 5 6 6 6 6 6 7 7 8 8 9 9 9 9 9 10 10 11 12 12 13 13 14 14 14 15 15 16 16 16 16 17 17
4 4 4 4 4 4 4 4 4 5 5 5 5 5 5 5 5 6 7 8 8 8 9 9 10 10 10 11 11 12 12 13 14 14 14 15 16 17 17 17 17 18 18
3 4 5 5 4 4 4 5 6 5 5 5 5 5 5 6 6 6 7 8 8 8 9 10 10 10 10 11 12 12 12 13 13 14 15 16 17 17 17 18 18 19 19
4 4 5 5 5 5 5 6 6 6 5 5 5 5 5 5 6 6 7 8 7 8 9 11 11 11 11 11 12 12 13 13 14 15 15 16 16 17 18 19 19 19 19
5 4 5 5 6 6 6 6 6 6 6 6 6 5 5 5 6 7 7 8 8 9 9 10 10 11 11 12 12 13 13 14 14 15 16 17 17 17 18 19 19 20 21
5 5 5 6 6 7 7 7 7 6 6 6 6 6 5 6 6 7 8 9 9 10 10 10 11 11 11 12 12 13 14 14 15 15 17 18 18 18 19 20 20 21 22
6 5 6 7 7 7 7 8 8 7 7 7 7 7 7 8 8 8 8 9 9 9 10 10 11 11 11 12 12 13 13 14 15 16 17 18 19 20 21 21 21 22 23
6 7 7 7 7 7 7 7 8 8 8 8 8 8 8 8 8 9 9 9 10 10 10 10 11 12 12 13 13 14 15 15 16 17 18 19 20 21 22 23 24 24 25
7 7 8 8 8 8 8 8 8 8 8 8 9 9 9 9 10 10 10 10 10 11 11 12 13 13 14 15 15 16 17 17 18 19 20 21 22 23 23 24 25 25 26
8 9 8 8 8 8 9 9 9 9 8 8 9 9 10 11 11 11 11 11 11 12 12 13 14 14 15 16 17 17 18 19 21 22 22 22 23 24 25 25 26 26 26
9 9 9 9 9 9 10 10 9 9 9 10 11 11 11 11 11 11 11 12 12 13 14 14 15 16 17 17 18 19 20 21 22 23 23 24 24 25 25 26 26 27 27
10 10 10 10 10 9 10 9 9 10 10 11 11 11 11 12 11 12 12 13 14 14 15 16 17 18 18 19 19 20 21 22 23 24 24 24 25 25 26 26 27 27 28
11 11 10 10 10 10 10 10 10 10 11 11 11 11 12 12 12 13 13 14 15 16 16 17 18 19 19 19 20 21 21 22 23 24 24 24 25 25 26 26 27 28 28
11 11 11 11 11 11 11 12 12 12 12 12 12 12 12 13 14 14 15 15 16 17 18 19 19 19 19 20 21 22 23 24 24 24 25 25 26 26 26 27 28 28 28
12 12 12 12 13 13 13 13 13 13 13 13 14 14 14 14 15 15 16 17 18 18 19 20 20 20 21 22 23 24 24 25 26 26 27 26 26 27 27 28 28 29 29
14 13 13 14 14 15 15 15 15 15 15 15 15 16 16 16 17 17 18 18 19 20 20 21 21 22 23 24 25 25 26 26 26 27 27 27 27 27 28 28 29 29 29
15 15 15 15 16 16 17 17 17 17 17 17 17 17 18 19 19 20 20 20 21 21 22 22 23 23 24 25 26 27 27 27 28 28 28 28 28 28 28 29 29 30 30

GEFSMA_500_meanwind_240.txt.gz
Wind_Speed
8 8 8 8 9 9 10 10 11 10 10 11 11 11 11 10 11 11 11 11 11 11 11 11 11 11 12 12 13 12 12 12 12 12 12 12 13 13 13 13 13 14 14
8 8 8 8 9 9 9 9 10 10 10 11 11 11 11 11 11 11 11 11 11 11 11 11 11 11 12 12 12 12 12 12 12 12 13 13 13 13 13 13 13 13 14
8 8 8 8 9 9 9 10 10 10 10 11 11 12 12 12 13 12 12 11 11 11 11 10 10 11 11 12 12 11 11 11 12 12 12 13 13 13 13 13 13 13 14
7 8 8 8 8 8 8 9 9 9 9 10 10 10 11 12 12 12 11 11 11 11 10 10 11 11 12 12 12 11 11 11 12 12 12 12 12 12 13 13 13 14 14
5 6 6 6 7 7 7 7 8 8 8 9 9 9 10 12 12 12 11 11 11 11 11 11 12 12 13 13 13 12 11 11 12 12 12 12 12 13 13 14 15 14 14
4 4 4 5 5 6 6 6 7 7 7 7 8 9 9 10 11 12 11 11 11 11 11 12 12 13 12 13 13 12 12 11 11 11 11 12 12 12 13 14 15 15 15
3 3 3 3 3 5 5 6 6 6 6 7 7 8 8 9 10 10 11 11 11 11 11 11 12 12 12 12 12 12 11 11 11 11 12 12 12 13 14 14 15 15 15
3 3 3 3 3 3 4 5 5 6 6 6 6 7 7 7 9 9 9 10 11 11 11 12 12 12 12 11 11 11 12 12 12 12 12 13 13 14 14 15 15 16 16
2 3 3 3 4 4 4 5 5 5 5 5 5 5 6 6 8 9 10 10 11 11 11 11 11 11 11 11 11 11 12 12 13 13 13 14 14 15 15 16 16 17 17
3 3 3 3 3 4 5 5 5 5 5 6 6 6 7 6 7 8 9 9 9 10 10 11 11 11 11 11 11 11 12 13 13 14 14 14 15 15 16 16 17 18 18
4 4 4 4 3 4 4 4 5 5 5 6 6 7 7 7 7 7 8 8 9 9 10 11 11 11 11 11 12 12 12 13 13 13 14 15 15 15 16 17 17 18 18
4 4 4 4 4 4 5 5 5 5 6 6 6 6 6 5 6 6 7 8 9 9 10 11 11 12 12 12 12 12 12 13 13 14 15 15 15 16 16 16 17 18 18
4 4 4 4 5 5 6 6 6 6 6 6 6 6 5 5 5 6 7 8 8 8 9 10 11 11 12 12 12 12 13 14 14 14 14 15 16 17 17 18 18 19 19
4 5 5 5 5 5 5 6 6 6 6 6 6 5 5 6 6 7 7 8 9 9 9 10 10 11 12 13 12 12 13 14 14 15 15 16 16 17 18 18 19 19 20
5 5 5 5 5 5 6 6 6 7 7 6 6 6 6 6 7 7 8 8 9 9 10 10 10 11 12 13 13 13 13 14 15 15 16 16 18 19 19 19 20 20 21
6 5 5 5 6 6 7 7 7 7 7 7 7 7 7 7 7 7 7 8 9 9 10 10 10 11 12 13 13 13 14 14 15 16 16 18 19 19 20 21 21 22 22
6 6 6 6 6 7 7 8 7 7 7 7 7 7 7 7 7 8 8 9 9 10 10 10 11 12 12 13 14 15 15 16 16 16 17 18 19 20 21 22 22 23 23
7 8 7 7 7 8 8 8 8 7 7 7 8 8 8 8 9 9 9 10 10 11 11 11 11 12 12 13 14 15 16 17 17 18 18 19 20 21 21 22 23 24 24
8 8 8 8 8 8 8 8 8 8 8 8 9 9 9 9 9 10 10 10 11 11 11 12 12 13 13 14 15 16 17 18 18 18 19 20 21 22 23 23 24 25 25
9 9 9 9 9 9 9 9 9 9 9 9 9 9 9 9 10 10 10 10 11 11 12 12 13 14 15 16 16 17 18 19 19 20 21 21 23 24 24 25 25 26 26
10 10 9 10 10 10 10 10 9 10 9 9 9 10 10 10 11 11 11 11 12 12 13 13 14 15 16 17 18 18 19 20 20 21 22 23 24 24 25 25 26 26 26
11 11 11 10 10 10 10 10 10 10 10 11 11 11 11 11 12 12 12 13 13 13 14 14 15 16 17 18 19 20 21 21 22 23 23 24 25 25 26 26 26 27 27
13 13 13 12 12 11 11 12 12 12 12 12 13 13 13 13 13 13 13 14 15 15 15 16 17 18 19 20 21 21 22 22 23 24 24 25 26 26 26 27 27 27 28
13 13 13 14 13 13 13 13 13 13 13 14 14 14 15 14 14 15 15 16 17 17 18 18 19 19 20 21 22 22 23 23 24 25 26 26 27 28 28 27 28 28 29
14 14 14 14 15 15 15 15 15 15 15 15 15 15 15 16 16 16 17 18 19 19 20 20 21 22 22 23 23 24 25 26 26 26 27 28 28 28 28 28 29 29 29
16 16 16 16 16 16 17 17 17 16 16 16 16 16 17 17 17 18 19 20 21 22 22 23 23 24 24 25 26 26 27 27 27 28 29 30 30 30 29 29 30 30 30

GEFSMA_500_meanwind_246.txt.gz
Wind_Speed
10 10 10 10 11 11 11 10 10 10 10 11 12 12 12 12 12 12 12 12 12 12 12 12 12 12 13 13 13 13 13 13 13 12 12 12 12 12 12 12 13 13 14
9 9 9 9 10 9 9 10 10 10 11 11 12 12 12 12 12 12 12 12 11 11 12 12 13 12 12 13 13 12 12 12 12 11 11 11 12 12 13 12 12 12 13
9 9 8 8 8 9 9 9 9 10 10 10 11 11 11 11 11 12 12 12 12 11 12 12 12 12 11 11 12 12 12 11 11 11 11 11 12 12 13 13 12 13 13
8 9 9 8 8 8 9 9 9 9 9 9 9 10 10 10 11 11 11 12 12 11 12 12 11 12 12 12 12 12 12 12 13 12 13 13 13 13 13 13 13 13 13
7 8 8 8 8 8 8 8 8 8 8 8 9 9 10 10 10 11 11 11 11 10 11 11 11 11 11 12 12 12 12 12 12 12 12 12 13 13 13 13 13 13 13
7 8 7 7 7 7 7 7 7 8 8 8 8 8 9 9 9 9 9 10 10 10 10 10 11 10 11 11 11 11 11 11 11 12 12 12 12 13 13 13 13 13 14
7 7 6 6 6 7 7 7 7 7 7 7 7 8 8 9 9 8 9 9 10 9 9 9 10 10 10 11 11 11 11 11 12 12 12 12 13 13 13 13 13 12 13
6 6 5 5 6 6 6 6 6 7 7 7 7 8 8 8 8 8 9 9 9 9 9 9 10 10 10 11 11 11 12 12 13 14 13 13 13 13 12 12 13 13 14
5 5 5 5 5 5 5 5 6 6 7 7 7 7 7 7 7 8 8 9 9 9 10 10 10 11 11 11 11 12 12 12 13 13 13 13 14 13 13 13 14 15 15
5 5 5 5 5 5 5 6 6 6 6 7 7 7 7 7 7 8 8 8 9 10 10 11 12 12 12 12 12 12 12 12 13 13 13 13 13 14 14 15 16 17 17
6 6 6 5 5 5 6 6 6 6 7 7 7 6 7 7 8 8 8 9 9 10 10 12 12 12 11 11 12 12 12 12 12 12 13 13 13 14 15 16 17 18 19
6 7 6 6 6 6 6 7 7 7 7 8 7 6 7 7 8 8 8 9 9 9 10 11 11 11 12 11 11 11 12 12 12 13 14 14 14 15 15 16 17 18 18
7 7 7 6 6 6 6 6 7 7 8 8 7 7 8 8 8 8 8 8 9 10 10 10 10 11 11 11 11 11 12 13 14 14 14 14 15 16 16 17 17 18 18
7 7 7 7 7 7 7 7 7 8 8 8 8 8 9 9 8 8 8 9 9 9 9 9 9 10 10 10 11 12 12 13 14 14 15 15 16 17 17 18 18 19 19
7 7 7 7 8 8 8 8 8 8 9 9 9 9 9 8 8 8 8 9 9 10 9 10 10 10 10 10 11 12 13 13 14 14 15 16 17 18 18 19 19 20 20
8 7 7 7 8 7 8 8 9 9 9 9 9 9 9 9 8 9 9 9 9 9 9 9 10 10 11 11 12 12 13 14 14 15 16 17 18 18 19 19 20 20 21
8 8 8 7 7 7 7 8 9 9 9 9 9 9 8 9 9 9 9 10 10 10 10 10 10 11 12 12 13 14 14 15 15 16 17 18 19 19 19 20 21 22 22
9 9 9 8 8 8 8 9 9 9 9 9 9 9 9 9 9 9 10 10 10 11 11 11 11 12 13 13 14 15 15 15 16 17 18 19 19 19 20 21 22 23 23
9 10 10 10 9 9 9 10 10 10 10 10 10 10 9 10 10 10 10 10 11 11 12 12 12 13 13 14 15 15 16 17 18 18 19 19 20 21 21 22 23 23 23
10 10 11 11 10 10 10 11 11 11 11 11 11 11 11 11 11 11 11 11 11 12 12 13 13 14 14 15 15 16 17 17 18 19 20 21 21 22 23 23 23 23 24
12 12 12 11 11 12 12 12 11 11 12 12 12 12 12 12 12 12 13 13 13 13 13 13 14 15 15 16 16 17 18 19 20 21 22 22 23 24 24 24 25 25 26
13 13 13 12 13 13 13 13 12 12 12 12 12 13 13 14 14 14 13 13 14 14 14 15 15 16 16 17 18 19 20 21 21 22 24 24 24 24 25 25 26 27 27
14 14 15 15 15 15 15 14 14 14 14 13 14 14 15 15 15 15 15 14 14 15 16 16 17 17 18 18 19 21 21 22 23 24 24 24 25 26 26 25 26 27 27
15 15 16 16 16 15 15 15 15 15 15 15 15 16 16 16 15 15 16 15 16 16 17 18 19 19 20 20 21 22 23 24 25 26 26 26 26 27 26 26 27 28 29
17 17 17 17 17 17 17 17 17 17 17 17 17 17 17 17 17 17 17 17 18 18 19 19 19 20 21 22 23 24 24 25 26 27 27 28 28 27 27 28 29 30 30
19 19 18 18 18 18 18 18 18 18 18 18 18 17 17 18 18 18 19 19 19 20 20 20 21 22 22 24 24 25 26 27 28 28 28 29 29 29 29 29 30 31 31

GEFSMA_500_meanwind_252.txt.gz
Wind_Speed
8 8 8 8 8 8 8 8 8 9 10 10 11 11 12 11 12 12 12 11 11 12 12 12 13 12 12 12 12 12 13 13 13 13 13 13 13 13 13 14 14 14 13
8 8 8 7 7 7 7 7 8 9 11 11 11 11 11 11 11 11 11 11 11 12 12 13 13 13 13 13 13 13 13 13 13 12 12 13 13 13 13 12 12 12 13
8 8 7 7 6 6 7 8 9 10 10 10 10 10 10 10 11 11 11 11 11 11 12 12 13 13 13 13 13 13 13 13 12 12 12 12 12 12 12 12 12 12 12
7 7 7 6 6 7 7 7 8 8 9 9 9 9 9 10 11 11 12 11 11 11 11 12 12 12 12 12 12 12 13 13 12 11 12 11 12 12 12 12 12 12 12
6 6 6 6 6 6 7 7 7 7 8 8 9 9 9 10 10 10 11 11 11 11 10 11 11 11 11 11 11 12 12 12 11 11 11 11 11 11 12 12 13 13 13
6 6 6 6 6 6 6 6 6 7 7 8 8 9 9 9 9 10 10 10 11 10 10 11 11 11 11 11 11 11 11 11 12 12 12 12 12 12 12 12 13 13 14
6 6 6 5 5 5 5 6 7 7 7 7 8 8 9 9 9 8 9 10 10 10 10 11 11 12 13 12 12 12 12 12 12 12 12 12 13 13 12 12 13 13 13
5 6 6 5 5 5 6 6 6 7 7 7 7 8 8 8 8 8 9 9 10 9 10 10 11 12 12 12 13 13 12 12 12 12 12 13 13 13 13 13 13 13 13
5 6 5 5 5 5 5 5 6 7 7 7 7 7 7 7 8 8 8 9 10 9 10 11 11 11 11 12 12 12 12 12 12 12 12 12 13 13 14 14 14 14 14
5 5 5 5 5 5 5 5 5 6 7 6 6 6 6 7 7 7 8 8 8 8 9 10 11 11 11 11 12 12 11 11 12 12 12 13 13 14 14 15 15 15 15
5 5 5 5 5 5 5 5 5 6 6 6 6 6 6 7 7 7 7 7 8 9 9 9 10 10 11 11 11 11 11 12 12 12 13 13 13 14 15 15 15 16 16
5 5 5 5 5 5 6 6 6 7 7 7 6 6 6 7 7 7 7 8 8 9 10 10 11 12 12 12 11 12 12 13 13 14 14 14 15 15 15 15 16 16 16
6 6 6 6 6 6 6 6 6 6 7 6 6 6 7 7 7 7 7 8 8 9 9 10 11 11 11 11 11 11 12 13 14 14 15 15 15 15 16 16 16 16 16
7 7 7 6 6 6 6 6 7 6 6 6 6 6 6 7 7 7 8 8 8 9 9 10 10 10 10 10 10 11 12 12 13 14 15 16 16 16 16 16 16 16 17
7 7 6 6 6 6 6 6 6 6 5 5 6 6 6 7 7 8 9 8 8 9 10 10 10 10 10 10 10 11 12 13 14 14 15 16 17 17 16 16 16 17 18
7 7 7 6 6 6 6 6 7 6 6 5 6 6 6 6 7 7 8 8 9 9 10 10 10 10 9 10 11 11 12 13 14 15 15 16 16 17 17 17 17 18 19
8 8 7 7 8 8 8 7 7 7 7 6 6 6 6 7 7 7 8 8 9 9 9 10 11 11 11 11 11 12 12 13 13 14 15 16 17 17 18 18 19 20 21
8 8 8 8 8 8 7 7 7 7 7 7 7 7 7 7 8 8 8 8 9 10 10 11 12 12 13 13 13 13 14 14 15 16 16 17 17 18 18 19 20 21 22
9 8 8 8 8 8 8 8 8 7 8 8 8 8 8 8 9 8 9 9 10 10 11 11 12 13 13 14 14 15 15 15 15 16 17 17 18 18 19 20 21 22 23
10 9 9 8 8 8 8 9 9 9 9 9 10 10 10 10 9 10 10 11 11 11 12 12 13 13 14 14 15 15 15 16 16 16 17 18 18 19 20 21 22 23 24
10 10 10 10 10 9 9 10 10 10 10 10 11 11 11 11 11 11 12 12 12 12 13 13 14 14 14 15 15 15 16 16 17 17 18 19 20 20 22 23 23 23 24
12 12 12 11 12 11 11 11 11 11 11 11 11 12 12 12 12 13 13 13 14 14 14 14 15 15 15 15 15 16 16 17 18 18 19 20 21 22 23 23 24 24 25
13 13 13 13 13 13 13 13 12 12 12 13 13 13 13 14 14 14 15 15 15 15 15 15 15 16 16 16 17 17 18 19 19 20 21 22 23 24 24 24 24 25 26
15 15 14 14 15 14 14 14 14 14 14 14 14 14 14 15 15 15 15 15 15 16 16 17 17 17 17 17 18 19 20 21 21 22 23 24 25 25 25 26 27 27 27
16 16 16 16 16 16 15 15 16 16 16 16 16 16 16 16 16 16 16 16 17 17 17 18 18 18 19 20 20 21 22 23 23 24 25 26 26 27 27 27 28 28 28
16 17 17 17 17 17 17 17 17 17 17 17 18 18 18 18 17 17 17 17 18 18 19 19 19 20 20 21 22 23 24 25 25 26 28 28 28 28 28 28 28 29 29

GEFSMA_500_meanwind_258.txt.gz
Wind_Speed
7 8 9 9 9 9 8 8 8 9 9 9 9 9 10 11 12 12 12 11 11 12 12 12 12 12 12 12 12 12 12 13 13 12 12 13 13 13 13 13 13 13 14
7 7 7 8 8 8 8 8 8 8 9 9 10 9 10 11 11 12 11 11 11 11 11 11 12 12 12 12 13 13 13 13 13 13 13 13 13 12 12 12 13 13 13
8 7 7 7 7 8 8 8 8 9 9 9 10 10 10 10 10 11 11 11 11 11 11 11 11 11 12 13 13 13 14 13 13 13 13 13 12 12 12 11 12 12 13
7 7 6 7 7 7 7 8 8 8 9 9 9 9 10 10 10 11 11 11 11 11 11 11 11 12 12 12 13 13 13 13 13 13 13 12 12 11 11 12 12 12 12
6 6 6 6 7 7 7 7 7 7 8 8 8 9 9 10 10 11 11 10 11 11 11 11 12 12 12 12 12 12 13 13 13 13 13 12 12 12 12 12 13 13 12
6 6 6 6 6 7 7 7 7 7 7 8 8 9 9 10 10 11 11 11 11 11 11 11 12 12 12 12 13 13 13 12 13 12 13 13 12 12 13 13 13 13 13
6 6 6 6 6 6 7 7 7 7 7 8 8 8 9 10 10 11 11 11 11 12 12 12 12 11 12 13 13 13 13 12 12 12 13 13 12 13 13 13 13 13 14
6 6 7 7 7 6 6 7 7 7 7 8 8 9 9 9 9 10 10 11 12 12 12 12 12 11 12 12 12 13 13 13 12 12 12 13 13 13 13 13 14 14 15
6 6 6 6 6 6 6 6 6 7 7 8 8 9 9 9 9 9 10 11 11 11 11 11 12 12 11 11 12 13 13 12 12 12 12 12 13 13 14 14 16 16 16
5 6 6 6 6 6 6 6 6 7 8 8 8 8 8 9 9 9 10 10 10 11 11 11 11 12 12 11 12 12 12 12 11 11 12 12 13 14 15 15 15 16 16
5 5 5 6 6 5 5 6 6 7 8 8 8 8 8 9 9 8 8 9 10 11 11 11 11 12 12 12 12 12 12 13 13 13 13 13 14 14 15 15 15 16 16
5 5 5 5 5 5 6 6 7 7 8 8 8 9 8 8 8 7 7 8 9 9 10 11 11 11 11 11 11 12 12 12 13 13 13 14 14 15 16 16 16 16 15
6 5 5 6 6 6 6 7 7 7 7 8 7 7 8 8 8 7 7 8 9 9 10 10 10 10 10 11 12 12 12 13 13 14 14 15 16 16 16 15 15 15 16
7 6 7 7 7 7 7 7 7 7 8 8 8 7 7 7 8 8 8 8 8 9 9 10 10 10 11 11 11 12 13 14 14 14 15 15 16 16 16 15 15 15 16
8 7 8 8 8 8 8 7 8 8 8 8 8 8 8 8 8 8 8 8 9 9 10 10 11 11 11 11 12 13 13 14 14 14 14 14 14 15 15 15 15 16 17
8 8 8 8 8 8 8 8 8 8 8 8 8 8 8 8 8 7 8 9 9 9 10 10 11 11 12 13 13 13 13 14 14 14 14 14 14 15 15 15 15 17 18
9 9 9 9 8 8 9 9 8 8 8 8 8 8 8 8 8 8 9 10 10 11 11 11 11 12 13 13 13 13 14 14 15 15 15 15 15 15 16 16 17 19 20
9 9 9 9 9 9 9 9 9 9 9 9 8 8 9 9 9 10 11 11 12 12 12 12 12 13 13 13 14 14 14 15 15 16 16 16 16 17 17 18 19 19 20
10 10 9 9 10 10 10 10 10 10 10 10 10 9 10 10 10 11 12 12 13 13 14 13 13 14 14 14 14 14 15 15 15 16 16 17 17 18 19 20 20 21 21
11 11 11 10 10 11 11 11 12 12 12 12 11 11 11 12 12 12 12 12 13 14 14 14 15 15 15 15 15 15 16 16 16 17 18 18 18 19 20 21 22 22 22
12 12 12 11 11 12 12 13 13 13 13 13 13 13 13 13 13 13 13 14 14 14 14 15 15 16 16 16 16 17 17 18 18 18 18 19 19 20 21 22 23 23 23
13 13 13 12 12 12 13 13 13 14 13 14 14 14 14 14 14 14 15 15 15 15 15 15 16 16 17 17 18 18 18 18 19 19 20 20 21 22 22 23 23 24 24
14 14 13 13 14 13 13 14 14 14 14 14 14 14 15 15 15 15 16 16 16 17 17 17 17 17 18 18 18 19 19 19 19 20 20 21 22 22 23 24 24 24 24
15 14 14 14 15 15 15 15 15 15 15 16 16 16 16 17 17 17 17 17 18 19 19 19 19 19 19 20 20 20 20 21 21 21 22 22 23 24 24 24 25 25 26
16 16 16 16 17 17 17 16 16 16 17 17 17 17 17 18 18 18 19 19 20 20 20 20 21 22 21 21 22 22 22 22 23 23 24 24 25 25 26 27 27 28 28
17 17 18 18 19 19 19 19 19 18 18 19 19 19 19 20 21 21 21 21 22 22 22 23 23 24 23 23 24 24 24 25 25 26 26 27 28 28 28 29 29 29 30

GEFSMA_500_meanwind_264.txt.gz
Wind_Speed
8 8 7 7 7 8 8 9 9 9 9 9 9 9 9 10 10 10 10 10 10 11 11 12 13 13 14 13 13 13 13 13 12 12 12 12 12 12 12 13 13 13 13
8 8 7 7 7 7 7 8 8 8 8 9 9 9 9 10 10 10 10 10 11 11 11 12 13 13 14 13 13 13 13 13 13 12 12 12 12 12 12 13 13 13 13
8 8 7 7 7 7 8 8 8 9 9 9 9 10 10 10 10 10 11 11 11 12 12 12 13 13 13 13 13 13 13 14 13 13 12 13 13 13 13 13 13 13 12
7 7 7 7 7 7 8 9 9 9 9 9 10 10 10 10 10 10 11 12 12 12 12 11 12 12 12 13 13 13 13 13 13 13 12 12 13 13 13 13 13 13 13
7 6 7 7 7 7 7 8 8 9 9 9 9 9 10 10 10 11 11 12 12 11 11 11 12 12 12 12 12 12 12 13 12 12 12 12 13 13 13 13 13 12 12
6 6 7 7 7 7 7 7 7 8 8 8 8 9 9 9 10 11 12 11 11 11 11 10 11 11 11 11 11 11 12 12 12 13 12 13 13 13 13 13 13 12 12
6 6 6 7 7 7 7 7 8 7 7 8 8 9 9 9 10 11 11 10 10 11 11 11 11 11 11 11 11 11 12 12 12 12 12 12 13 13 13 13 13 13 13
7 6 6 6 6 6 7 7 8 7 7 8 8 8 8 9 10 10 11 11 11 11 12 12 12 11 11 11 11 11 11 11 12 11 12 12 13 14 14 14 13 13 14
6 6 6 6 6 6 6 7 7 8 8 8 8 8 8 9 9 9 10 11 11 12 12 12 12 13 12 12 12 12 12 12 12 12 12 13 13 13 14 14 14 14 14
6 6 6 6 6 6 7 7 7 7 7 8 8 9 8 9 9 9 9 10 11 11 11 12 12 12 13 13 13 12 12 13 13 13 13 13 13 14 15 14 14 14 15
6 6 6 6 6 7 7 7 7 7 7 8 8 8 8 8 9 9 9 9 9 10 10 11 11 12 12 12 12 12 12 13 13 14 14 14 14 14 15 15 15 15 16
6 6 7 6 7 7 7 7 7 7 7 7 8 8 8 9 9 9 9 9 9 9 9 10 10 11 11 12 12 12 13 13 13 14 13 13 14 14 14 14 15 16 16
7 7 6 6 6 6 7 7 7 7 7 7 7 8 8 8 9 8 8 8 8 9 9 9 9 10 10 11 12 12 13 13 13 13 13 13 13 13 14 14 14 15 15
7 7 7 7 7 7 7 7 7 7 7 7 7 7 7 7 8 8 8 8 7 8 9 9 9 9 10 11 11 12 13 13 13 13 13 13 13 13 13 14 15 15 15
8 8 7 7 7 7 7 7 8 8 8 8 8 8 7 7 7 7 7 8 8 9 9 9 9 10 10 10 11 12 12 12 13 14 14 13 13 13 13 14 15 15 14
8 7 7 7 8 8 8 8 8 8 8 8 9 9 9 8 8 8 8 9 9 9 9 9 10 11 10 11 11 12 12 13 13 14 14 14 14 14 14 14 15 14 15
9 8 8 8 8 8 8 8 8 8 8 8 8 9 9 9 9 9 9 9 8 9 9 10 10 11 11 11 12 12 13 13 13 14 14 15 15 15 15 16 16 16 17
10 9 9 9 9 9 8 8 8 8 9 9 9 9 9 10 10 10 10 10 9 9 10 10 11 12 12 13 13 13 14 15 15 15 15 15 15 15 16 17 17 17 18
11 12 11 11 10 10 10 9 9 9 10 10 10 10 10 10 10 11 11 11 10 11 11 10 11 12 12 14 14 15 15 15 16 15 15 16 16 17 17 18 18 19 20
12 12 12 12 11 10 11 11 10 10 10 11 11 11 11 12 12 12 12 12 12 12 13 12 12 12 14 14 14 15 15 15 15 15 16 17 18 18 19 19 20 21 21
13 13 12 12 11 11 12 12 12 11 11 12 12 12 12 13 13 13 13 13 13 14 14 14 14 15 16 15 15 15 15 15 16 16 17 18 19 19 20 20 21 21 22
14 14 14 13 13 13 13 14 13 13 13 13 13 13 14 14 14 14 15 15 15 15 15 15 16 16 17 17 16 16 17 17 17 17 18 18 19 20 21 21 22 22 23
16 15 15 15 15 15 15 15 15 15 15 14 14 15 15 16 16 16 16 16 16 17 17 16 17 18 18 18 18 18 18 19 18 19 19 20 21 22 22 22 23 23 24
17 16 16 16 16 16 17 17 17 16 16 16 16 16 16 16 16 17 17 18 18 18 18 18 19 19 20 20 20 21 21 21 21 21 22 22 23 24 24 24 25 25 26
18 18 18 17 17 18 18 18 19 19 19 19 19 18 18 18 18 18 19 19 19 20 20 20 21 21 21 21 22 23 22 22 23 23 24 24 24 25 26 26 27 27 28
20 20 20 19 20 20 20 20 21 21 21 21 21 20 20 20 20 20 21 21 21 22 22 22 22 22 22 23 24 24 24 24 24 25 26 26 26 27 28 28 29 29 30

GEFSMA_500_meanwind_270.txt.gz
Wind_Speed
10 10 10 10 10 10 10 9 10 10 10 10 11 10 10 10 10 10 10 10 9 10 10 10 10 11 12 12 13 12 12 13 13 13 14 13 12 12 12 12 11 12 12
9 9 9 9 9 10 10 10 10 10 10 10 10 10 10 9 9 10 10 10 10 10 11 11 11 12 12 12 12 13 13 13 13 13 13 13 12 12 12 11 12 12 11
9 8 8 9 9 9 9 9 9 10 10 10 10 10 10 10 10 10 10 11 11 11 11 11 11 12 12 12 13 13 13 12 12 12 12 12 12 12 12 12 12 12 12
9 9 8 8 8 9 8 9 10 10 10 10 10 11 10 11 11 11 11 11 12 12 11 11 11 11 11 11 12 12 12 13 12 12 13 12 12 12 12 12 13 12 12
9 8 8 8 8 8 8 9 9 10 10 10 10 10 10 11 11 12 12 11 11 11 10 10 11 11 11 11 11 11 12 12 13 13 13 13 12 12 13 12 13 13 13
8 8 8 8 8 8 8 9 9 9 9 9 9 9 10 11 11 11 11 11 10 10 10 10 11 11 11 11 11 11 11 12 13 13 13 13 13 13 13 13 13 13 13
8 8 8 8 8 8 9 9 9 9 9 9 9 9 10 10 10 10 10 10 10 10 10 11 11 11 11 11 11 11 11 10 12 12 13 13 13 14 14 14 13 13 12
7 7 7 8 8 8 8 8 8 8 8 9 9 9 9 10 10 9 9 10 10 10 11 11 11 11 12 12 11 11 11 11 11 11 12 13 13 13 14 14 13 13 14
7 7 7 7 8 8 8 8 8 7 8 8 8 8 9 9 9 9 9 9 9 9 10 12 11 11 12 11 11 11 11 11 11 12 12 12 12 12 12 13 13 13 13
7 7 7 8 8 8 8 8 8 7 8 8 9 9 9 9 8 9 9 9 9 9 10 10 10 11 10 10 10 10 11 11 11 11 12 12 12 12 12 13 13 13 13
7 7 7 8 8 8 8 8 8 8 8 8 8 8 9 9 9 10 10 9 9 9 9 9 9 9 10 10 10 10 11 11 11 11 11 12 12 11 11 12 13 13 13
8 8 8 8 8 8 8 8 8 8 9 9 8 8 9 9 10 9 10 10 9 9 9 9 9 9 10 10 10 10 11 11 11 11 12 12 12 13 12 12 12 12 12
8 8 8 8 9 8 9 9 9 9 9 9 9 9 9 9 9 9 9 10 10 10 10 9 9 9 9 9 9 10 10 11 12 12 12 13 13 13 12 12 13 12 12
9 8 8 8 8 9 9 9 10 10 10 10 9 9 8 8 9 8 9 9 9 10 10 10 10 9 9 9 9 10 11 11 12 12 12 12 13 13 13 13 13 13 14
10 10 9 9 9 9 10 10 10 10 10 10 10 9 8 7 8 8 8 9 10 10 10 9 10 10 10 10 10 11 12 12 12 12 12 11 11 11 12 13 13 13 14
12 11 11 11 10 10 10 10 10 10 10 9 9 9 8 8 8 8 8 9 10 10 10 10 9 10 10 11 11 11 12 11 11 11 11 11 11 12 13 13 13 14 15
13 12 11 11 11 11 11 11 10 10 10 10 9 9 9 9 9 9 9 10 10 10 9 10 10 11 11 11 11 11 12 12 11 12 12 13 13 14 14 14 14 15 15
14 13 13 13 12 12 12 11 10 10 10 10 9 9 9 9 10 10 10 10 10 10 11 11 12 12 12 12 12 12 13 13 13 13 14 15 15 15 15 15 16 16 17
14 14 14 14 13 13 12 12 12 12 11 11 11 10 10 10 10 10 11 11 12 12 13 13 13 13 13 13 12 13 13 13 13 14 15 15 16 16 17 18 18 18 18
15 15 14 14 14 13 13 13 12 12 12 12 12 11 11 11 11 12 12 13 13 13 14 14 14 14 13 14 14 14 13 14 14 14 15 16 17 17 17 18 19 19 19
16 16 15 15 14 14 14 14 13 12 12 12 12 12 13 13 13 13 14 14 14 15 15 15 15 15 15 15 15 15 14 15 15 16 16 17 17 18 19 19 20 20 21
17 17 16 15 15 15 15 15 14 14 14 13 13 13 13 14 14 15 15 16 16 16 16 16 16 16 17 17 16 16 16 16 17 18 18 19 19 20 20 20 21 22 22
18 18 18 17 17 16 16 16 15 15 15 15 15 15 15 16 16 16 17 17 18 19 19 19 18 18 19 19 19 19 18 18 18 19 20 20 21 22 22 22 22 23 22
20 19 19 19 18 18 17 17 17 17 17 17 17 17 18 18 18 18 19 19 19 19 20 20 20 20 21 21 21 21 21 21 21 22 22 22 22 24 24 24 24 24 24
21 20 20 19 19 19 19 19 19 19 19 19 19 20 20 20 21 21 21 21 22 21 21 22 22 23 23 23 23 23 22 23 23 24 24 24 24 25 25 25 26 25 26
22 22 22 21 20 21 21 21 21 21 21 21 21 22 22 22 23 23 23 23 24 24 24 24 24 24 25 25 25 25 25 25 25 25 26 26 27 26 26 27 27 28 29